| time (UTC) | temp F | wind direction | speed knots | gust knots | rain 1hr in | rain 24hr in | rain mn in | humidity % | barometer mb |
| 20260504110704 | 62 | 302 | 7.8 | 20.9 | 0.00 | 0.03 | 0.00 | 44 | 1018.2 |
| 20260504110605 | 63 | 349 | 7.8 | 20.9 | 0.00 | 0.03 | 0.00 | 44 | 1018.2 |
| 20260504110503 | 63 | 326 | 7.8 | 20.9 | 0.00 | 0.03 | 0.00 | 45 | 1018.2 |
| 20260504110402 | 63 | 330 | 7.8 | 14.8 | 0.00 | 0.03 | 0.00 | 44 | 1018.2 |
| 20260504110302 | 63 | 353 | 7.8 | 14.8 | 0.00 | 0.03 | 0.00 | 44 | 1018.2 |
| 20260504110203 | 63 | 333 | 8.7 | 14.8 | 0.00 | 0.03 | 0.00 | 45 | 1018.3 |
| 20260504110103 | 62 | 269 | 8.7 | 14.8 | 0.00 | 0.03 | 0.00 | 44 | 1018.2 |
| 20260504100545 | 62 | 283 | 9.6 | 19.1 | 0.00 | 0.03 | 0.00 | 45 | 1018.4 |
| 20260504100445 | 62 | 293 | 9.6 | 19.1 | 0.00 | 0.03 | 0.00 | 45 | 1018.4 |
| 20260504100349 | 62 | 348 | 9.6 | 18.2 | 0.00 | 0.03 | 0.00 | 46 | 1018.4 |
| 20260504100245 | 62 | 280 | 9.6 | 18.2 | 0.00 | 0.03 | 0.00 | 46 | 1018.4 |
| 20260504100144 | 62 | 307 | 9.6 | 18.2 | 0.00 | 0.03 | 0.00 | 45 | 1018.4 |
| 20260504090132 | 62 | 303 | 7.0 | 15.6 | 0.00 | 0.04 | 0.00 | 48 | 1018.5 |
| 20260504082004 | 60 | 297 | 7.8 | 18.2 | 0.00 | 0.04 | 0.00 | 47 | 1018.3 |
| 20260504081904 | 60 | 280 | 7.8 | 17.4 | 0.00 | 0.04 | 0.00 | 47 | 1018.2 |
| 20260504081805 | 60 | 259 | 7.0 | 17.4 | 0.00 | 0.04 | 0.00 | 47 | 1018.3 |
| 20260504081706 | 60 | 307 | 7.0 | 17.4 | 0.00 | 0.04 | 0.00 | 47 | 1018.3 |
| 20260504081603 | 60 | 14 | 7.0 | 17.4 | 0.00 | 0.04 | 0.00 | 47 | 1018.2 |
| 20260504081503 | 60 | 10 | 7.0 | 17.4 | 0.00 | 0.04 | 0.00 | 47 | 1018.3 |
| 20260504081405 | 60 | 295 | 7.0 | 18.2 | 0.00 | 0.04 | 0.00 | 47 | 1018.2 |
| 20260504081305 | 60 | 336 | 7.0 | 18.2 | 0.00 | 0.04 | 0.00 | 47 | 1018.3 |
| 20260504081203 | 60 | 344 | 7.0 | 18.2 | 0.00 | 0.04 | 0.00 | 47 | 1018.3 |
| 20260504081103 | 60 | 324 | 7.8 | 18.2 | 0.00 | 0.04 | 0.00 | 48 | 1018.1 |
| 20260504081003 | 60 | 320 | 7.8 | 20.0 | 0.00 | 0.04 | 0.00 | 48 | 1018.1 |
| 20260504080904 | 60 | 45 | 7.8 | 20.0 | 0.00 | 0.04 | 0.00 | 48 | 1018.2 |
| 20260504080803 | 60 | 0 | 7.8 | 20.0 | 0.00 | 0.04 | 0.00 | 49 | 1018.1 |
| 20260504080704 | 60 | 326 | 8.7 | 20.0 | 0.00 | 0.04 | 0.00 | 49 | 1018.1 |
| 20260504080605 | 60 | 325 | 8.7 | 20.0 | 0.00 | 0.04 | 0.00 | 49 | 1018.1 |
| 20260504080504 | 60 | 272 | 7.8 | 20.0 | 0.00 | 0.04 | 0.00 | 49 | 1018.1 |
| 20260504080403 | 60 | 331 | 7.8 | 20.0 | 0.00 | 0.04 | 0.00 | 50 | 1017.9 |
| 20260504080303 | 59 | 353 | 7.8 | 20.0 | 0.00 | 0.04 | 0.00 | 50 | 1018.0 |
| 20260504080200 | 59 | 22 | 7.8 | 20.0 | 0.00 | 0.04 | 0.00 | 50 | 1018.2 |
| 20260504070332 | 59 | 340 | 8.7 | 20.0 | 0.00 | 0.04 | 0.00 | 49 | 1017.6 |
| 20260504070231 | 60 | 343 | 8.7 | 19.1 | 0.00 | 0.04 | 0.00 | 50 | 1017.6 |
| 20260504070132 | 60 | 322 | 8.7 | 19.1 | 0.00 | 0.04 | 0.00 | 51 | 1017.5 |
| 20260504060204 | 58 | 307 | 7.0 | 14.8 | 0.00 | 0.04 | 0.00 | 55 | 1017.0 |
| 20260504060109 | 58 | 33 | 7.0 | 14.8 | 0.00 | 0.04 | 0.00 | 55 | 1016.9 |
| 20260504050706 | 57 | 284 | 7.8 | 14.8 | 0.00 | 0.04 | 0.00 | 57 | 1016.7 |
| 20260504050605 | 57 | 10 | 7.8 | 16.5 | 0.00 | 0.04 | 0.00 | 56 | 1016.6 |
| 20260504050504 | 57 | 14 | 7.8 | 16.5 | 0.00 | 0.04 | 0.00 | 56 | 1016.7 |
| 20260504050404 | 57 | 355 | 7.8 | 16.5 | 0.00 | 0.04 | 0.00 | 56 | 1016.6 |
| 20260504050303 | 57 | 338 | 7.0 | 16.5 | 0.00 | 0.04 | 0.00 | 57 | 1016.5 |
| 20260504050203 | 57 | 350 | 7.0 | 16.5 | 0.00 | 0.04 | 0.00 | 57 | 1016.4 |
| 20260504050104 | 57 | 299 | 7.0 | 16.5 | 0.00 | 0.04 | 0.00 | 57 | 1016.5 |
| 20260504050006 | 57 | 318 | 7.0 | 16.5 | 0.00 | 0.04 | 0.00 | 57 | 1016.6 |
| 20260504045903 | 57 | 0 | 6.1 | 16.5 | 0.00 | 0.04 | 0.00 | 57 | 1016.4 |
| 20260504045804 | 57 | 349 | 6.1 | 16.5 | 0.00 | 0.04 | 0.00 | 57 | 1016.6 |
| 20260504045705 | 57 | 317 | 5.2 | 14.8 | 0.00 | 0.04 | 0.00 | 57 | 1016.5 |
| 20260504045605 | 57 | 14 | 6.1 | 14.8 | 0.00 | 0.04 | 0.00 | 57 | 1016.4 |
| 20260504045503 | 57 | 10 | 6.1 | 14.8 | 0.00 | 0.04 | 0.00 | 57 | 1016.4 |
| 20260504045403 | 57 | 317 | 6.1 | 14.8 | 0.00 | 0.04 | 0.00 | 57 | 1016.5 |
| 20260504045304 | 57 | 340 | 6.1 | 14.8 | 0.00 | 0.04 | 0.00 | 57 | 1016.4 |
| 20260504045204 | 57 | 285 | 6.1 | 14.8 | 0.00 | 0.04 | 0.00 | 57 | 1016.5 |
| 20260504045105 | 57 | 307 | 7.0 | 14.8 | 0.00 | 0.04 | 0.00 | 57 | 1016.3 |
| 20260504045004 | 57 | 72 | 7.0 | 14.8 | 0.00 | 0.04 | 0.00 | 57 | 1016.4 |
| 20260504044903 | 57 | 317 | 7.8 | 14.8 | 0.00 | 0.04 | 0.00 | 57 | 1016.5 |
| 20260504044802 | 57 | 277 | 7.8 | 14.8 | 0.00 | 0.04 | 0.00 | 57 | 1016.4 |
| 20260504044705 | 57 | 264 | 7.8 | 14.8 | 0.00 | 0.04 | 0.00 | 57 | 1016.4 |
| 20260504044605 | 57 | 328 | 7.8 | 14.8 | 0.00 | 0.04 | 0.00 | 57 | 1016.3 |
| 20260504044503 | 57 | 281 | 7.8 | 14.8 | 0.00 | 0.04 | 0.00 | 57 | 1016.3 |
| 20260504044408 | 57 | 337 | 7.8 | 14.8 | 0.00 | 0.04 | 0.00 | 57 | 1016.5 |
| 20260504044303 | 57 | 345 | 7.0 | 14.8 | 0.00 | 0.04 | 0.00 | 56 | 1016.5 |
| 20260504044204 | 57 | 325 | 7.0 | 14.8 | 0.00 | 0.04 | 0.00 | 56 | 1016.7 |
| 20260504044104 | 57 | 5 | 7.0 | 14.8 | 0.00 | 0.04 | 0.00 | 56 | 1016.5 |
| 20260504044004 | 57 | 279 | 7.0 | 15.6 | 0.00 | 0.04 | 0.00 | 56 | 1016.6 |
| 20260504043904 | 57 | 297 | 6.1 | 15.6 | 0.00 | 0.04 | 0.00 | 57 | 1016.6 |
| 20260504043803 | 57 | 307 | 7.0 | 15.6 | 0.00 | 0.04 | 0.00 | 57 | 1016.4 |
| 20260504043705 | 57 | 304 | 7.0 | 15.6 | 0.00 | 0.04 | 0.00 | 58 | 1016.6 |
| 20260504043604 | 57 | 351 | 7.0 | 15.6 | 0.00 | 0.04 | 0.00 | 58 | 1016.4 |
| 20260504043506 | 57 | 337 | 7.0 | 15.6 | 0.00 | 0.04 | 0.00 | 58 | 1016.4 |
| 20260504043403 | 56 | 328 | 7.0 | 15.6 | 0.00 | 0.04 | 0.00 | 58 | 1016.3 |
| 20260504043303 | 56 | 291 | 7.0 | 15.6 | 0.00 | 0.04 | 0.00 | 58 | 1016.4 |
| 20260504043204 | 56 | 33 | 7.0 | 15.6 | 0.00 | 0.04 | 0.00 | 58 | 1016.7 |
| 20260504043105 | 56 | 307 | 7.0 | 15.6 | 0.00 | 0.04 | 0.00 | 59 | 1016.5 |
| 20260504043004 | 56 | 307 | 7.0 | 14.8 | 0.00 | 0.04 | 0.00 | 59 | 1016.4 |
| 20260504042904 | 56 | 314 | 7.0 | 14.8 | 0.00 | 0.04 | 0.00 | 59 | 1016.4 |
| 20260504042804 | 56 | 314 | 7.0 | 14.8 | 0.00 | 0.04 | 0.00 | 59 | 1016.5 |
| 20260504042706 | 56 | 334 | 6.1 | 14.8 | 0.00 | 0.04 | 0.00 | 59 | 1016.4 |
| 20260504042603 | 56 | 331 | 7.0 | 14.8 | 0.00 | 0.04 | 0.00 | 58 | 1016.5 |
| 20260504042504 | 56 | 5 | 7.0 | 18.2 | 0.00 | 0.04 | 0.00 | 58 | 1016.6 |
| 20260504042404 | 56 | 311 | 7.0 | 18.2 | 0.00 | 0.04 | 0.00 | 58 | 1016.3 |
| 20260504042304 | 56 | 20 | 7.0 | 19.1 | 0.00 | 0.04 | 0.00 | 59 | 1016.4 |
| 20260504042204 | 56 | 10 | 7.0 | 19.1 | 0.00 | 0.04 | 0.00 | 58 | 1016.6 |
| 20260504042118 | 56 | 351 | 7.0 | 19.1 | 0.00 | 0.04 | 0.00 | 58 | 1016.4 |
| 20260504042002 | 56 | 348 | 7.0 | 19.1 | 0.00 | 0.04 | 0.00 | 58 | 1016.5 |
| 20260504041902 | 56 | 299 | 7.0 | 21.7 | 0.00 | 0.04 | 0.00 | 58 | 1016.6 |
| 20260504041806 | 56 | 319 | 7.0 | 21.7 | 0.00 | 0.04 | 0.00 | 58 | 1016.4 |
| 20260504041704 | 56 | 300 | 7.8 | 21.7 | 0.00 | 0.04 | 0.00 | 58 | 1016.5 |
| 20260504041605 | 56 | 0 | 7.8 | 21.7 | 0.00 | 0.04 | 0.00 | 58 | 1016.6 |
| 20260504041504 | 56 | 308 | 7.8 | 21.7 | 0.00 | 0.04 | 0.00 | 58 | 1016.3 |
| 20260504041403 | 56 | 316 | 7.0 | 21.7 | 0.00 | 0.04 | 0.00 | 58 | 1016.4 |
| 20260504041302 | 56 | 332 | 7.0 | 21.7 | 0.00 | 0.04 | 0.00 | 58 | 1016.2 |
| 20260504041204 | 56 | 270 | 7.8 | 21.7 | 0.00 | 0.04 | 0.00 | 59 | 1016.3 |
| 20260504041104 | 56 | 351 | 7.8 | 21.7 | 0.00 | 0.04 | 0.00 | 59 | 1016.2 |
| 20260504041006 | 56 | 277 | 7.0 | 21.7 | 0.00 | 0.04 | 0.00 | 59 | 1016.2 |
| 20260504040904 | 56 | 297 | 7.0 | 17.4 | 0.00 | 0.04 | 0.00 | 59 | 1016.3 |
| 20260504040804 | 56 | 307 | 7.0 | 17.4 | 0.00 | 0.04 | 0.00 | 60 | 1016.3 |
| 20260504040705 | 56 | 334 | 7.0 | 17.4 | 0.00 | 0.04 | 0.00 | 60 | 1016.4 |
| 20260504040605 | 56 | 264 | 7.0 | 16.5 | 0.00 | 0.04 | 0.00 | 60 | 1016.1 |
| 20260504040504 | 56 | 316 | 7.8 | 16.5 | 0.00 | 0.04 | 0.00 | 60 | 1016.2 |
| 20260504040402 | 56 | 18 | 7.8 | 16.5 | 0.00 | 0.04 | 0.00 | 60 | 1016.1 |
| 20260504040304 | 56 | 303 | 7.8 | 16.5 | 0.00 | 0.04 | 0.00 | 60 | 1016.0 |
| 20260504040203 | 56 | 279 | 7.8 | 18.2 | 0.00 | 0.04 | 0.00 | 60 | 1016.0 |
| 20260504040108 | 56 | 288 | 7.8 | 18.2 | 0.00 | 0.04 | 0.00 | 59 | 1016.0 |
| 20260504040004 | 56 | 5 | 7.8 | 18.2 | 0.00 | 0.04 | 0.00 | 59 | 1015.9 |
| 20260504035903 | 56 | 332 | 7.8 | 18.2 | 0.00 | 0.04 | 0.00 | 59 | 1015.9 |
| 20260504035804 | 56 | 347 | 8.7 | 18.2 | 0.00 | 0.04 | 0.00 | 59 | 1015.9 |
| 20260504035705 | 56 | 0 | 8.7 | 18.2 | 0.00 | 0.04 | 0.00 | 59 | 1015.9 |
| 20260504035604 | 56 | 334 | 8.7 | 18.2 | 0.00 | 0.04 | 0.00 | 58 | 1015.9 |
| 20260504035504 | 56 | 282 | 7.8 | 18.2 | 0.00 | 0.04 | 0.00 | 58 | 1015.8 |
| 20260504035405 | 56 | 278 | 7.8 | 18.2 | 0.00 | 0.04 | 0.00 | 58 | 1015.8 |
| 20260504035308 | 56 | 332 | 7.8 | 18.2 | 0.00 | 0.04 | 0.00 | 58 | 1015.8 |
| 20260504035205 | 56 | 280 | 7.8 | 18.2 | 0.00 | 0.04 | 0.00 | 58 | 1015.9 |
| 20260504035105 | 56 | 321 | 7.8 | 18.2 | 0.00 | 0.04 | 0.00 | 58 | 1015.9 |
| 20260504035004 | 56 | 28 | 7.8 | 18.2 | 0.00 | 0.04 | 0.00 | 58 | 1015.8 |
| 20260504034904 | 56 | 332 | 7.8 | 18.2 | 0.00 | 0.04 | 0.00 | 58 | 1015.9 |
| 20260504034805 | 56 | 329 | 7.8 | 18.2 | 0.00 | 0.04 | 0.00 | 58 | 1015.9 |
| 20260504034705 | 56 | 311 | 7.0 | 15.6 | 0.00 | 0.04 | 0.00 | 60 | 1015.9 |
| 20260504034603 | 56 | 334 | 7.0 | 13.9 | 0.00 | 0.04 | 0.00 | 60 | 1015.7 |
| 20260504034503 | 56 | 330 | 7.8 | 15.6 | 0.00 | 0.04 | 0.00 | 61 | 1015.7 |
| 20260504034405 | 56 | 29 | 7.0 | 17.4 | 0.00 | 0.04 | 0.00 | 61 | 1015.7 |
| 20260504034304 | 56 | 283 | 7.0 | 17.4 | 0.00 | 0.04 | 0.00 | 61 | 1015.6 |
| 20260504034204 | 56 | 317 | 7.0 | 17.4 | 0.00 | 0.04 | 0.00 | 60 | 1015.7 |
| 20260504034104 | 56 | 354 | 7.0 | 17.4 | 0.00 | 0.04 | 0.00 | 60 | 1015.8 |
| 20260504034002 | 56 | 266 | 7.0 | 17.4 | 0.00 | 0.04 | 0.00 | 60 | 1015.7 |
| 20260504033902 | 56 | 332 | 7.0 | 17.4 | 0.00 | 0.04 | 0.00 | 60 | 1015.8 |
| 20260504033804 | 56 | 293 | 7.0 | 17.4 | 0.00 | 0.04 | 0.00 | 60 | 1015.8 |
| 20260504033705 | 56 | 287 | 6.1 | 17.4 | 0.00 | 0.04 | 0.00 | 61 | 1015.6 |
| 20260504033608 | 56 | 330 | 6.1 | 17.4 | 0.00 | 0.04 | 0.00 | 61 | 1015.6 |
| 20260504033504 | 56 | 302 | 5.2 | 16.5 | 0.00 | 0.04 | 0.00 | 61 | 1015.5 |
| 20260504033403 | 56 | 309 | 5.2 | 16.5 | 0.00 | 0.04 | 0.00 | 61 | 1015.6 |
| 20260504033303 | 56 | 318 | 5.2 | 16.5 | 0.00 | 0.04 | 0.00 | 61 | 1015.6 |
| 20260504033203 | 56 | 49 | 5.2 | 16.5 | 0.00 | 0.04 | 0.00 | 61 | 1015.7 |
| 20260504033104 | 56 | 5 | 5.2 | 16.5 | 0.00 | 0.04 | 0.00 | 61 | 1015.6 |
| 20260504033002 | 56 | 295 | 5.2 | 16.5 | 0.00 | 0.04 | 0.00 | 61 | 1015.6 |
| 20260504032902 | 56 | 322 | 5.2 | 16.5 | 0.00 | 0.04 | 0.00 | 61 | 1015.7 |
| 20260504032804 | 56 | 330 | 5.2 | 16.5 | 0.00 | 0.04 | 0.00 | 61 | 1015.7 |
| 20260504032705 | 56 | 298 | 5.2 | 13.0 | 0.00 | 0.04 | 0.00 | 61 | 1015.6 |
| 20260504032604 | 56 | 318 | 6.1 | 13.0 | 0.00 | 0.04 | 0.00 | 61 | 1015.6 |
| 20260504032503 | 56 | 24 | 7.0 | 13.0 | 0.00 | 0.04 | 0.00 | 60 | 1015.6 |
| 20260504032404 | 56 | 50 | 7.8 | 20.0 | 0.00 | 0.04 | 0.00 | 60 | 1015.6 |
| 20260504032304 | 56 | 355 | 7.8 | 20.0 | 0.00 | 0.04 | 0.00 | 60 | 1015.6 |
| 20260504032203 | 56 | 278 | 8.7 | 20.0 | 0.00 | 0.04 | 0.00 | 60 | 1015.6 |
| 20260504032104 | 56 | 310 | 8.7 | 20.0 | 0.00 | 0.04 | 0.00 | 60 | 1015.6 |
| 20260504032003 | 56 | 331 | 8.7 | 20.0 | 0.00 | 0.04 | 0.00 | 60 | 1015.7 |
| 20260504031904 | 56 | 15 | 8.7 | 20.0 | 0.00 | 0.04 | 0.00 | 60 | 1015.6 |
| 20260504031804 | 56 | 310 | 8.7 | 20.0 | 0.00 | 0.04 | 0.00 | 60 | 1015.6 |
| 20260504031704 | 56 | 315 | 9.6 | 20.0 | 0.00 | 0.04 | 0.00 | 60 | 1015.7 |
| 20260504031604 | 56 | 31 | 8.7 | 20.0 | 0.00 | 0.04 | 0.00 | 60 | 1015.7 |
| 20260504031503 | 56 | 284 | 8.7 | 20.0 | 0.00 | 0.04 | 0.00 | 60 | 1015.6 |
| 20260504031404 | 56 | 338 | 7.8 | 19.1 | 0.00 | 0.04 | 0.00 | 60 | 1015.6 |
| 20260504031304 | 56 | 299 | 7.8 | 19.1 | 0.00 | 0.04 | 0.00 | 60 | 1015.8 |
| 20260504031203 | 56 | 307 | 7.0 | 19.1 | 0.00 | 0.04 | 0.00 | 60 | 1015.7 |
| 20260504031102 | 56 | 266 | 7.0 | 19.1 | 0.00 | 0.04 | 0.00 | 60 | 1015.6 |
| 20260504031005 | 56 | 0 | 7.0 | 19.1 | 0.00 | 0.04 | 0.00 | 60 | 1015.7 |
| 20260504030904 | 56 | 353 | 7.0 | 19.1 | 0.00 | 0.04 | 0.00 | 60 | 1015.6 |
| 20260504030803 | 56 | 27 | 7.0 | 19.1 | 0.00 | 0.04 | 0.00 | 61 | 1015.6 |
| 20260504030704 | 56 | 279 | 6.1 | 16.5 | 0.00 | 0.04 | 0.00 | 60 | 1015.6 |
| 20260504030603 | 56 | 285 | 7.0 | 13.9 | 0.00 | 0.04 | 0.00 | 60 | 1015.5 |
| 20260504030503 | 56 | 270 | 7.0 | 13.9 | 0.00 | 0.04 | 0.00 | 60 | 1015.6 |
| 20260504030404 | 56 | 329 | 7.8 | 19.1 | 0.00 | 0.04 | 0.00 | 60 | 1015.6 |
| 20260504030302 | 56 | 332 | 7.8 | 19.1 | 0.00 | 0.04 | 0.00 | 60 | 1015.6 |
| 20260504030206 | 56 | 45 | 8.7 | 19.1 | 0.00 | 0.04 | 0.00 | 59 | 1015.7 |
| 20260504030104 | 56 | 282 | 9.6 | 19.1 | 0.00 | 0.04 | 0.00 | 59 | 1015.7 |
| 20260504030007 | 56 | 336 | 10.4 | 20.0 | 0.00 | 0.04 | 0.00 | 59 | 1015.6 |
| 20260504025904 | 56 | 307 | 10.4 | 20.0 | 0.00 | 0.04 | 0.00 | 59 | 1015.7 |
| 20260504025802 | 56 | 0 | 10.4 | 20.0 | 0.00 | 0.04 | 0.00 | 59 | 1015.6 |
| 20260504025705 | 56 | 292 | 11.3 | 20.0 | 0.00 | 0.04 | 0.00 | 59 | 1015.6 |
| 20260504025604 | 56 | 299 | 11.3 | 20.0 | 0.00 | 0.04 | 0.00 | 58 | 1015.6 |
| 20260504025502 | 56 | 309 | 11.3 | 20.0 | 0.00 | 0.04 | 0.00 | 58 | 1015.6 |
| 20260504025402 | 56 | 336 | 11.3 | 20.0 | 0.00 | 0.05 | 0.00 | 58 | 1015.5 |
| 20260504025306 | 56 | 301 | 11.3 | 20.0 | 0.00 | 0.05 | 0.00 | 58 | 1015.8 |
| 20260504025204 | 56 | 330 | 11.3 | 20.0 | 0.00 | 0.05 | 0.00 | 58 | 1015.8 |
| 20260504025103 | 56 | 345 | 11.3 | 20.0 | 0.00 | 0.05 | 0.00 | 59 | 1015.8 |
| 20260504025004 | 56 | 319 | 11.3 | 20.0 | 0.00 | 0.05 | 0.00 | 59 | 1015.6 |
| 20260504024904 | 56 | 292 | 10.4 | 20.0 | 0.00 | 0.05 | 0.00 | 60 | 1015.6 |
| 20260504024803 | 56 | 341 | 9.6 | 20.0 | 0.00 | 0.05 | 0.00 | 60 | 1015.7 |
| 20260504024705 | 56 | 5 | 9.6 | 20.0 | 0.00 | 0.05 | 0.00 | 60 | 1015.6 |
| 20260504024602 | 56 | 31 | 8.7 | 20.0 | 0.00 | 0.05 | 0.00 | 60 | 1015.6 |
| 20260504024504 | 56 | 331 | 8.7 | 20.0 | 0.00 | 0.05 | 0.00 | 60 | 1015.6 |
| 20260504024403 | 56 | 324 | 7.8 | 20.0 | 0.00 | 0.05 | 0.00 | 59 | 1015.6 |
| 20260504024303 | 56 | 316 | 7.8 | 18.2 | 0.00 | 0.05 | 0.00 | 59 | 1015.6 |
| 20260504024204 | 56 | 331 | 7.0 | 18.2 | 0.00 | 0.05 | 0.00 | 60 | 1015.7 |
| 20260504024104 | 56 | 315 | 7.0 | 18.2 | 0.00 | 0.05 | 0.00 | 60 | 1015.6 |
| 20260504024003 | 56 | 332 | 7.0 | 16.5 | 0.00 | 0.05 | 0.00 | 60 | 1015.6 |
| 20260504023903 | 56 | 353 | 7.8 | 20.0 | 0.00 | 0.05 | 0.00 | 60 | 1015.7 |
| 20260504023803 | 56 | 256 | 7.8 | 20.0 | 0.00 | 0.05 | 0.00 | 60 | 1015.6 |
| 20260504023705 | 56 | 301 | 8.7 | 20.0 | 0.00 | 0.05 | 0.00 | 60 | 1015.6 |
| 20260504023605 | 56 | 264 | 8.7 | 20.9 | 0.00 | 0.05 | 0.00 | 60 | 1015.6 |
| 20260504023504 | 56 | 19 | 9.6 | 20.9 | 0.00 | 0.05 | 0.00 | 60 | 1015.7 |
| 20260504023404 | 56 | 315 | 9.6 | 20.9 | 0.00 | 0.05 | 0.00 | 60 | 1015.7 |
| 20260504023304 | 56 | 329 | 9.6 | 20.9 | 0.00 | 0.05 | 0.00 | 60 | 1015.6 |
| 20260504023204 | 56 | 316 | 10.4 | 20.9 | 0.00 | 0.05 | 0.00 | 60 | 1015.6 |
| 20260504023104 | 56 | 334 | 10.4 | 20.9 | 0.00 | 0.05 | 0.00 | 59 | 1015.6 |
| 20260504023004 | 56 | 325 | 10.4 | 20.9 | 0.00 | 0.05 | 0.00 | 59 | 1015.7 |
| 20260504022903 | 56 | 318 | 10.4 | 20.9 | 0.00 | 0.05 | 0.00 | 59 | 1015.6 |
| 20260504022803 | 56 | 306 | 9.6 | 20.9 | 0.00 | 0.05 | 0.00 | 59 | 1015.7 |
| 20260504022658 | 56 | 338 | 10.4 | 20.9 | 0.00 | 0.05 | 0.00 | 60 | 1015.7 |
| 20260504022601 | 56 | 305 | 10.4 | 19.1 | 0.00 | 0.05 | 0.00 | 60 | 1015.7 |
| 20260504022457 | 56 | 0 | 10.4 | 19.1 | 0.00 | 0.05 | 0.00 | 60 | 1015.8 |
| 20260504022358 | 56 | 328 | 10.4 | 19.1 | 0.00 | 0.05 | 0.00 | 60 | 1015.7 |
| 20260504022258 | 56 | 332 | 10.4 | 22.6 | 0.00 | 0.05 | 0.00 | 60 | 1015.7 |
| 20260504022152 | 56 | 264 | 10.4 | 22.6 | 0.00 | 0.05 | 0.00 | 60 | 1015.8 |
| 20260504022052 | 56 | 311 | 10.4 | 22.6 | 0.00 | 0.05 | 0.00 | 60 | 1015.8 |
| 20260504021952 | 56 | 331 | 9.6 | 22.6 | 0.00 | 0.05 | 0.00 | 59 | 1015.6 |
| 20260504021852 | 56 | 289 | 9.6 | 22.6 | 0.00 | 0.05 | 0.00 | 59 | 1015.7 |
| 20260504021751 | 56 | 286 | 9.6 | 22.6 | 0.00 | 0.05 | 0.00 | 59 | 1015.8 |
| 20260504021646 | 56 | 328 | 9.6 | 22.6 | 0.00 | 0.05 | 0.00 | 59 | 1015.9 |
| 20260504021546 | 56 | 322 | 9.6 | 22.6 | 0.00 | 0.05 | 0.00 | 60 | 1015.7 |
| 20260504021445 | 56 | 351 | 9.6 | 22.6 | 0.00 | 0.05 | 0.00 | 60 | 1015.8 |
| 20260504021346 | 56 | 330 | 8.7 | 22.6 | 0.00 | 0.05 | 0.00 | 60 | 1015.7 |
| 20260504021246 | 56 | 318 | 8.7 | 17.4 | 0.00 | 0.05 | 0.00 | 59 | 1015.9 |
| 20260504021140 | 56 | 69 | 8.7 | 17.4 | 0.00 | 0.05 | 0.00 | 59 | 1015.9 |
| 20260504021039 | 56 | 330 | 8.7 | 17.4 | 0.00 | 0.05 | 0.00 | 58 | 1015.7 |
| 20260504020939 | 56 | 295 | 8.7 | 17.4 | 0.00 | 0.05 | 0.00 | 58 | 1015.6 |
| 20260504020840 | 56 | 334 | 8.7 | 19.1 | 0.00 | 0.05 | 0.00 | 58 | 1015.8 |
| 20260504020740 | 56 | 292 | 8.7 | 19.1 | 0.00 | 0.05 | 0.00 | 59 | 1015.8 |
| 20260504020634 | 56 | 319 | 8.7 | 19.1 | 0.00 | 0.05 | 0.00 | 59 | 1015.8 |
| 20260504020532 | 56 | 323 | 8.7 | 19.1 | 0.00 | 0.05 | 0.00 | 59 | 1015.8 |
| 20260504020433 | 56 | 320 | 9.6 | 19.1 | 0.00 | 0.05 | 0.00 | 59 | 1015.8 |
| 20260504020331 | 56 | 347 | 8.7 | 19.1 | 0.00 | 0.05 | 0.00 | 59 | 1015.8 |
| 20260504020232 | 56 | 310 | 9.6 | 19.1 | 0.00 | 0.05 | 0.00 | 59 | 1015.9 |
| 20260504020128 | 56 | 318 | 8.7 | 19.1 | 0.00 | 0.05 | 0.00 | 59 | 1015.8 |
| 20260504020030 | 56 | 311 | 8.7 | 19.1 | 0.00 | 0.05 | 0.00 | 58 | 1015.6 |
| 20260504015930 | 56 | 315 | 9.6 | 19.1 | 0.00 | 0.05 | 0.00 | 58 | 1015.8 |
| 20260504015829 | 56 | 276 | 8.7 | 19.1 | 0.00 | 0.05 | 0.00 | 58 | 1015.7 |
| 20260504015729 | 56 | 10 | 8.7 | 19.1 | 0.00 | 0.05 | 0.00 | 59 | 1015.9 |
| 20260504015630 | 56 | 291 | 8.7 | 19.1 | 0.00 | 0.05 | 0.00 | 59 | 1015.8 |
| 20260504015528 | 56 | 305 | 8.7 | 19.1 | 0.00 | 0.05 | 0.00 | 59 | 1015.9 |
| 20260504015429 | 56 | 317 | 8.7 | 15.6 | 0.00 | 0.05 | 0.00 | 59 | 1015.8 |
| 20260504015328 | 56 | 289 | 8.7 | 15.6 | 0.00 | 0.05 | 0.00 | 59 | 1015.9 |
| 20260504015229 | 56 | 305 | 8.7 | 15.6 | 0.00 | 0.05 | 0.00 | 59 | 1015.7 |
| 20260504015130 | 56 | 298 | 7.8 | 15.6 | 0.00 | 0.05 | 0.00 | 59 | 1015.9 |
| 20260504015030 | 56 | 334 | 7.8 | 15.6 | 0.00 | 0.05 | 0.00 | 58 | 1015.7 |
| 20260504014930 | 56 | 314 | 7.0 | 15.6 | 0.00 | 0.05 | 0.00 | 58 | 1015.9 |
| 20260504014829 | 56 | 292 | 7.0 | 15.6 | 0.00 | 0.05 | 0.00 | 58 | 1015.8 |
| 20260504014731 | 56 | 0 | 7.0 | 15.6 | 0.00 | 0.05 | 0.00 | 58 | 1015.9 |
| 20260504014632 | 56 | 297 | 7.0 | 15.6 | 0.00 | 0.05 | 0.00 | 58 | 1015.8 |
| 20260504014532 | 56 | 340 | 7.0 | 16.5 | 0.00 | 0.05 | 0.00 | 58 | 1015.8 |
| 20260504014430 | 56 | 320 | 7.0 | 16.5 | 0.00 | 0.05 | 0.00 | 58 | 1015.8 |
| 20260504014328 | 56 | 35 | 7.0 | 16.5 | 0.00 | 0.05 | 0.00 | 58 | 1015.8 |
| 20260504014229 | 56 | 308 | 7.0 | 16.5 | 0.00 | 0.05 | 0.00 | 58 | 1015.8 |
| 20260504014130 | 56 | 304 | 7.0 | 16.5 | 0.00 | 0.05 | 0.00 | 59 | 1015.8 |
| 20260504014029 | 55 | 18 | 7.0 | 19.1 | 0.00 | 0.05 | 0.00 | 59 | 1015.9 |
| 20260504013930 | 56 | 34 | 7.8 | 19.1 | 0.00 | 0.05 | 0.00 | 58 | 1015.8 |
| 20260504013829 | 56 | 269 | 8.7 | 19.1 | 0.00 | 0.05 | 0.00 | 58 | 1015.7 |
| 20260504013729 | 56 | 326 | 8.7 | 19.1 | 0.00 | 0.05 | 0.00 | 58 | 1015.7 |
| 20260504013630 | 55 | 344 | 8.7 | 19.1 | 0.00 | 0.05 | 0.00 | 58 | 1015.7 |
| 20260504013529 | 55 | 24 | 7.8 | 19.1 | 0.00 | 0.05 | 0.00 | 59 | 1015.9 |
| 20260504013430 | 55 | 347 | 8.7 | 19.1 | 0.00 | 0.05 | 0.00 | 59 | 1015.9 |
| 20260504013330 | 55 | 342 | 8.7 | 19.1 | 0.00 | 0.05 | 0.00 | 59 | 1015.9 |
| 20260504013231 | 56 | 310 | 8.7 | 19.1 | 0.00 | 0.05 | 0.00 | 59 | 1015.7 |
| 20260504013129 | 56 | 347 | 9.6 | 19.1 | 0.00 | 0.05 | 0.00 | 59 | 1015.7 |
| 20260504013029 | 56 | 342 | 8.7 | 18.2 | 0.00 | 0.05 | 0.00 | 59 | 1015.7 |
| 20260504012928 | 55 | 345 | 8.7 | 18.2 | 0.00 | 0.05 | 0.00 | 59 | 1015.8 |
| 20260504012828 | 56 | 300 | 8.7 | 18.2 | 0.00 | 0.05 | 0.00 | 58 | 1015.8 |
| 20260504012729 | 55 | 315 | 8.7 | 18.2 | 0.00 | 0.05 | 0.00 | 57 | 1015.8 |
| 20260504012630 | 55 | 28 | 8.7 | 18.2 | 0.00 | 0.05 | 0.00 | 57 | 1015.8 |
| 20260504012528 | 55 | 307 | 8.7 | 18.2 | 0.00 | 0.05 | 0.00 | 57 | 1015.8 |
| 20260504012429 | 56 | 316 | 8.7 | 18.2 | 0.00 | 0.05 | 0.00 | 57 | 1015.8 |
| 20260504012330 | 55 | 17 | 8.7 | 18.2 | 0.00 | 0.05 | 0.00 | 58 | 1015.8 |
| 20260504012230 | 55 | 307 | 8.7 | 22.6 | 0.00 | 0.05 | 0.00 | 58 | 1015.8 |
| 20260504012129 | 55 | 247 | 8.7 | 22.6 | 0.00 | 0.05 | 0.00 | 59 | 1015.9 |
| 20260504012030 | 55 | 322 | 8.7 | 22.6 | 0.00 | 0.05 | 0.00 | 59 | 1015.8 |
| 20260504011929 | 55 | 330 | 9.6 | 22.6 | 0.00 | 0.05 | 0.00 | 59 | 1015.9 |
| 20260504011828 | 55 | 313 | 8.7 | 22.6 | 0.00 | 0.05 | 0.00 | 58 | 1015.7 |
| 20260504011730 | 55 | 296 | 8.7 | 22.6 | 0.00 | 0.05 | 0.00 | 59 | 1015.6 |
| 20260504011632 | 55 | 303 | 8.7 | 22.6 | 0.00 | 0.05 | 0.00 | 59 | 1015.7 |
| 20260504011528 | 55 | 283 | 7.8 | 22.6 | 0.00 | 0.05 | 0.00 | 58 | 1015.7 |
| 20260504011429 | 55 | 327 | 7.8 | 22.6 | 0.00 | 0.05 | 0.00 | 58 | 1015.7 |
| 20260504011329 | 55 | 271 | 8.7 | 22.6 | 0.00 | 0.05 | 0.00 | 58 | 1015.7 |
| 20260504011230 | 55 | 318 | 7.8 | 20.9 | 0.00 | 0.05 | 0.00 | 58 | 1015.8 |
| 20260504011131 | 55 | 341 | 7.8 | 20.9 | 0.00 | 0.05 | 0.00 | 58 | 1015.9 |
| 20260504011028 | 55 | 10 | 7.8 | 20.9 | 0.00 | 0.05 | 0.00 | 58 | 1015.8 |
| 20260504010929 | 55 | 322 | 7.8 | 20.9 | 0.00 | 0.05 | 0.00 | 58 | 1015.7 |
| 20260504010828 | 55 | 349 | 7.0 | 20.9 | 0.00 | 0.05 | 0.00 | 58 | 1015.7 |
| 20260504010731 | 55 | 318 | 7.0 | 20.9 | 0.00 | 0.05 | 0.00 | 57 | 1015.7 |
| 20260504010631 | 55 | 275 | 7.0 | 20.9 | 0.00 | 0.05 | 0.00 | 57 | 1015.7 |
| 20260504010529 | 55 | 333 | 7.0 | 20.9 | 0.00 | 0.05 | 0.00 | 56 | 1015.8 |
| 20260504010429 | 55 | 287 | 7.0 | 20.9 | 0.00 | 0.05 | 0.00 | 57 | 1015.8 |
| 20260504010330 | 55 | 316 | 7.0 | 18.2 | 0.00 | 0.05 | 0.00 | 57 | 1015.9 |
| 20260504010230 | 55 | 288 | 6.1 | 18.2 | 0.00 | 0.05 | 0.00 | 58 | 1015.7 |
| 20260504010134 | 55 | 348 | 7.0 | 18.2 | 0.00 | 0.05 | 0.00 | 58 | 1015.7 |
| 20260504010029 | 55 | 296 | 7.0 | 18.2 | 0.00 | 0.05 | 0.00 | 58 | 1015.8 |
| 20260504005929 | 55 | 317 | 7.0 | 16.5 | 0.00 | 0.05 | 0.00 | 58 | 1015.8 |
| 20260504005829 | 55 | 265 | 7.0 | 16.5 | 0.00 | 0.05 | 0.00 | 58 | 1015.8 |
| 20260504005729 | 55 | 288 | 7.0 | 16.5 | 0.00 | 0.05 | 0.00 | 58 | 1015.8 |
| 20260504005632 | 55 | 93 | 7.0 | 16.5 | 0.00 | 0.05 | 0.00 | 59 | 1015.8 |
| 20260504005529 | 55 | 45 | 7.0 | 16.5 | 0.00 | 0.05 | 0.00 | 59 | 1015.9 |
| 20260504005429 | 55 | 34 | 7.8 | 16.5 | 0.00 | 0.05 | 0.00 | 59 | 1015.8 |
| 20260504005329 | 55 | 308 | 7.8 | 19.1 | 0.00 | 0.05 | 0.00 | 59 | 1015.8 |
| 20260504005228 | 56 | 282 | 7.0 | 19.1 | 0.00 | 0.05 | 0.00 | 60 | 1015.8 |
| 20260504005133 | 56 | 324 | 7.0 | 19.1 | 0.00 | 0.05 | 0.00 | 60 | 1015.8 |
| 20260504005029 | 56 | 349 | 7.0 | 19.1 | 0.00 | 0.05 | 0.00 | 59 | 1015.8 |
| 20260504004930 | 56 | 309 | 7.8 | 19.1 | 0.00 | 0.05 | 0.00 | 60 | 1015.8 |
| 20260504004831 | 56 | 18 | 7.8 | 19.1 | 0.00 | 0.05 | 0.00 | 60 | 1015.8 |
| 20260504004729 | 56 | 341 | 7.8 | 19.1 | 0.00 | 0.05 | 0.00 | 60 | 1015.7 |
| 20260504004633 | 56 | 0 | 7.8 | 19.1 | 0.00 | 0.05 | 0.00 | 60 | 1015.7 |
| 20260504004529 | 56 | 0 | 8.7 | 19.1 | 0.00 | 0.05 | 0.00 | 60 | 1015.6 |
| 20260504004430 | 56 | 313 | 8.7 | 19.1 | 0.00 | 0.05 | 0.00 | 60 | 1015.5 |
| 20260504004329 | 56 | 249 | 8.7 | 17.4 | 0.00 | 0.05 | 0.00 | 60 | 1015.6 |
| 20260504004229 | 56 | 300 | 8.7 | 17.4 | 0.00 | 0.05 | 0.00 | 60 | 1015.5 |
| 20260504004130 | 56 | 321 | 8.7 | 17.4 | 0.00 | 0.05 | 0.00 | 60 | 1015.7 |
| 20260504004029 | 56 | 303 | 8.7 | 17.4 | 0.00 | 0.05 | 0.00 | 60 | 1015.6 |
| 20260504003930 | 56 | 322 | 8.7 | 17.4 | 0.00 | 0.05 | 0.00 | 60 | 1015.6 |
| 20260504003830 | 56 | 325 | 8.7 | 17.4 | 0.00 | 0.05 | 0.00 | 60 | 1015.6 |
| 20260504003728 | 56 | 257 | 9.6 | 17.4 | 0.00 | 0.05 | 0.00 | 59 | 1015.6 |
| 20260504003630 | 56 | 304 | 9.6 | 17.4 | 0.00 | 0.05 | 0.00 | 59 | 1015.5 |
| 20260504003529 | 56 | 338 | 8.7 | 15.6 | 0.00 | 0.05 | 0.00 | 59 | 1015.6 |
| 20260504003430 | 56 | 337 | 8.7 | 15.6 | 0.00 | 0.05 | 0.00 | 59 | 1015.6 |
| 20260504003330 | 56 | 67 | 8.7 | 15.6 | 0.00 | 0.05 | 0.00 | 58 | 1015.8 |
| 20260504003230 | 56 | 48 | 9.6 | 15.6 | 0.00 | 0.05 | 0.00 | 58 | 1015.6 |
| 20260504003130 | 55 | 313 | 10.4 | 17.4 | 0.00 | 0.05 | 0.00 | 58 | 1015.5 |
| 20260504003029 | 56 | 299 | 10.4 | 17.4 | 0.00 | 0.05 | 0.00 | 58 | 1015.6 |
| 20260504002930 | 56 | 304 | 9.6 | 17.4 | 0.00 | 0.05 | 0.00 | 58 | 1015.5 |
| 20260504002830 | 56 | 320 | 9.6 | 17.4 | 0.00 | 0.05 | 0.00 | 58 | 1015.4 |
| 20260504002729 | 56 | 312 | 9.6 | 17.4 | 0.00 | 0.05 | 0.00 | 58 | 1015.6 |
| 20260504002631 | 56 | 275 | 9.6 | 17.4 | 0.00 | 0.05 | 0.00 | 57 | 1015.5 |
| 20260504002529 | 56 | 326 | 8.7 | 17.4 | 0.00 | 0.05 | 0.00 | 58 | 1015.6 |
| 20260504002429 | 56 | 284 | 8.7 | 17.4 | 0.00 | 0.05 | 0.00 | 58 | 1015.6 |
| 20260504002330 | 56 | 330 | 8.7 | 17.4 | 0.00 | 0.05 | 0.00 | 58 | 1015.6 |
| 20260504002229 | 56 | 347 | 7.8 | 17.4 | 0.00 | 0.05 | 0.00 | 58 | 1015.6 |
| 20260504002129 | 56 | 295 | 7.8 | 18.2 | 0.00 | 0.05 | 0.00 | 59 | 1015.5 |
| 20260504002029 | 56 | 349 | 7.8 | 18.2 | 0.00 | 0.05 | 0.00 | 58 | 1015.5 |
| 20260504001929 | 56 | 0 | 7.8 | 18.2 | 0.00 | 0.05 | 0.00 | 58 | 1015.6 |
| 20260504001830 | 56 | 248 | 7.8 | 18.2 | 0.00 | 0.05 | 0.00 | 58 | 1015.6 |
| 20260504001730 | 56 | 279 | 7.8 | 18.2 | 0.00 | 0.05 | 0.00 | 58 | 1015.6 |
| 20260504001631 | 56 | 325 | 7.8 | 18.2 | 0.00 | 0.05 | 0.00 | 58 | 1015.7 |
| 20260504001529 | 56 | 337 | 7.8 | 19.1 | 0.00 | 0.05 | 0.00 | 58 | 1015.7 |
| 20260504001428 | 56 | 341 | 7.8 | 19.1 | 0.00 | 0.05 | 0.00 | 58 | 1015.7 |
| 20260504001329 | 56 | 302 | 8.7 | 20.0 | 0.00 | 0.05 | 0.00 | 58 | 1015.7 |
| 20260504001230 | 56 | 309 | 8.7 | 20.0 | 0.00 | 0.05 | 0.00 | 57 | 1015.5 |
| 20260504001129 | 56 | 19 | 8.7 | 20.0 | 0.00 | 0.05 | 0.00 | 57 | 1015.6 |
| 20260504001029 | 56 | 311 | 8.7 | 20.0 | 0.00 | 0.05 | 0.00 | 57 | 1015.7 |
| 20260504000929 | 56 | 339 | 8.7 | 20.0 | 0.00 | 0.05 | 0.00 | 57 | 1015.7 |
| 20260504000830 | 56 | 272 | 8.7 | 20.0 | 0.00 | 0.05 | 0.00 | 57 | 1015.7 |
| 20260504000730 | 56 | 295 | 8.7 | 20.0 | 0.00 | 0.05 | 0.00 | 56 | 1015.7 |
| 20260504000629 | 56 | 280 | 9.6 | 20.0 | 0.00 | 0.06 | 0.00 | 56 | 1015.5 |
| 20260504000528 | 56 | 299 | 9.6 | 20.0 | 0.00 | 0.06 | 0.00 | 57 | 1015.7 |
| 20260504000430 | 56 | 297 | 9.6 | 20.0 | 0.00 | 0.06 | 0.00 | 57 | 1015.7 |
| 20260504000330 | 56 | 346 | 8.7 | 20.0 | 0.00 | 0.06 | 0.00 | 57 | 1015.8 |
| 20260504000230 | 56 | 319 | 8.7 | 18.2 | 0.00 | 0.06 | 0.00 | 58 | 1015.7 |
| 20260504000129 | 56 | 20 | 9.6 | 18.2 | 0.00 | 0.06 | 0.00 | 58 | 1015.7 |
| 20260504000030 | 56 | 23 | 9.6 | 18.2 | 0.00 | 0.06 | 0.00 | 59 | 1015.6 |
| 20260503235930 | 56 | 334 | 9.6 | 18.2 | 0.00 | 0.06 | 0.00 | 59 | 1015.7 |
| 20260503235828 | 56 | 299 | 9.6 | 18.2 | 0.00 | 0.06 | 0.00 | 59 | 1015.7 |
| 20260503235730 | 56 | 308 | 9.6 | 18.2 | 0.00 | 0.06 | 0.00 | 59 | 1015.6 |
| 20260503235631 | 56 | 324 | 9.6 | 18.2 | 0.00 | 0.06 | 0.00 | 58 | 1015.5 |
| 20260503235530 | 56 | 334 | 8.7 | 18.2 | 0.00 | 0.06 | 0.00 | 58 | 1015.5 |
| 20260503235428 | 56 | 311 | 9.6 | 18.2 | 0.00 | 0.06 | 0.00 | 58 | 1015.5 |
| 20260503235329 | 56 | 279 | 9.6 | 23.5 | 0.00 | 0.06 | 0.00 | 58 | 1015.6 |
| 20260503235230 | 56 | 316 | 9.6 | 23.5 | 0.00 | 0.06 | 0.00 | 58 | 1015.5 |
| 20260503235129 | 56 | 276 | 9.6 | 23.5 | 0.00 | 0.06 | 0.00 | 58 | 1015.5 |
| 20260503235030 | 56 | 306 | 9.6 | 23.5 | 0.00 | 0.06 | 0.00 | 58 | 1015.4 |
| 20260503234928 | 56 | 338 | 8.7 | 23.5 | 0.00 | 0.06 | 0.00 | 57 | 1015.5 |
| 20260503234828 | 56 | 296 | 8.7 | 23.5 | 0.00 | 0.06 | 0.00 | 57 | 1015.3 |
| 20260503234730 | 56 | 288 | 7.8 | 23.5 | 0.00 | 0.06 | 0.00 | 57 | 1015.5 |
| 20260503234631 | 56 | 311 | 7.8 | 23.5 | 0.00 | 0.06 | 0.00 | 57 | 1015.4 |
| 20260503234529 | 56 | 238 | 7.8 | 23.5 | 0.00 | 0.06 | 0.00 | 57 | 1015.4 |
| 20260503234429 | 56 | 314 | 7.8 | 23.5 | 0.00 | 0.06 | 0.00 | 58 | 1015.4 |
| 20260503234329 | 56 | 310 | 7.8 | 16.5 | 0.00 | 0.06 | 0.00 | 58 | 1015.6 |
| 20260503234229 | 56 | 340 | 8.7 | 16.5 | 0.00 | 0.06 | 0.00 | 57 | 1015.5 |
| 20260503234130 | 56 | 287 | 8.7 | 16.5 | 0.00 | 0.06 | 0.00 | 57 | 1015.5 |
| 20260503234029 | 56 | 341 | 8.7 | 24.3 | 0.00 | 0.06 | 0.00 | 57 | 1015.6 |
| 20260503233929 | 56 | 27 | 9.6 | 24.3 | 0.00 | 0.06 | 0.00 | 57 | 1015.6 |
| 20260503233828 | 56 | 340 | 9.6 | 24.3 | 0.00 | 0.06 | 0.00 | 57 | 1015.5 |
| 20260503233730 | 56 | 311 | 10.4 | 24.3 | 0.00 | 0.06 | 0.00 | 56 | 1015.5 |
| 20260503233631 | 56 | 303 | 10.4 | 24.3 | 0.00 | 0.06 | 0.00 | 57 | 1015.4 |
| 20260503233531 | 56 | 5 | 10.4 | 24.3 | 0.00 | 0.06 | 0.00 | 56 | 1015.5 |
| 20260503233430 | 56 | 290 | 11.3 | 24.3 | 0.00 | 0.06 | 0.00 | 56 | 1015.6 |
| 20260503233229 | 56 | 299 | 11.3 | 24.3 | 0.00 | 0.06 | 0.00 | 55 | 1015.6 |
| 20260503233130 | 56 | 18 | 10.4 | 24.3 | 0.00 | 0.06 | 0.00 | 55 | 1015.5 |
| 20260503233028 | 56 | 278 | 10.4 | 20.9 | 0.00 | 0.06 | 0.00 | 55 | 1015.6 |
| 20260503232931 | 56 | 323 | 10.4 | 20.9 | 0.00 | 0.06 | 0.00 | 55 | 1015.6 |
| 20260503232829 | 56 | 0 | 9.6 | 20.9 | 0.00 | 0.06 | 0.00 | 55 | 1015.5 |
| 20260503232728 | 56 | 299 | 9.6 | 20.9 | 0.00 | 0.06 | 0.00 | 55 | 1015.6 |
| 20260503232631 | 56 | 345 | 9.6 | 20.9 | 0.00 | 0.06 | 0.00 | 56 | 1015.5 |
| 20260503232530 | 56 | 332 | 9.6 | 20.9 | 0.00 | 0.06 | 0.00 | 56 | 1015.4 |
| 20260503232429 | 56 | 266 | 8.7 | 20.9 | 0.00 | 0.06 | 0.00 | 56 | 1015.6 |
| 20260503232328 | 56 | 254 | 8.7 | 19.1 | 0.00 | 0.06 | 0.00 | 57 | 1015.6 |
| 20260503232229 | 56 | 276 | 8.7 | 19.1 | 0.00 | 0.06 | 0.00 | 57 | 1015.3 |
| 20260503232131 | 56 | 294 | 8.7 | 17.4 | 0.00 | 0.06 | 0.00 | 57 | 1015.4 |
| 20260503232029 | 56 | 349 | 8.7 | 17.4 | 0.00 | 0.06 | 0.00 | 57 | 1015.6 |
| 20260503231930 | 56 | 312 | 7.8 | 17.4 | 0.00 | 0.06 | 0.00 | 57 | 1015.4 |
| 20260503231830 | 56 | 307 | 8.7 | 17.4 | 0.00 | 0.06 | 0.00 | 57 | 1015.4 |
| 20260503231728 | 56 | 314 | 7.8 | 17.4 | 0.00 | 0.06 | 0.00 | 57 | 1015.4 |
| 20260503231631 | 56 | 314 | 7.8 | 15.6 | 0.00 | 0.06 | 0.00 | 57 | 1015.4 |
| 20260503231530 | 56 | 307 | 7.8 | 19.1 | 0.00 | 0.06 | 0.00 | 57 | 1015.4 |
| 20260503231429 | 56 | 289 | 7.8 | 19.1 | 0.00 | 0.06 | 0.00 | 57 | 1015.3 |
| 20260503231328 | 56 | 271 | 7.8 | 19.1 | 0.00 | 0.06 | 0.00 | 58 | 1015.5 |
| 20260503231232 | 56 | 149 | 8.7 | 19.1 | 0.00 | 0.06 | 0.00 | 58 | 1015.3 |
| 20260503231131 | 56 | 347 | 8.7 | 19.1 | 0.00 | 0.06 | 0.00 | 58 | 1015.4 |
| 20260503231030 | 56 | 295 | 8.7 | 19.1 | 0.00 | 0.06 | 0.00 | 58 | 1015.5 |
| 20260503230928 | 56 | 301 | 8.7 | 19.1 | 0.00 | 0.06 | 0.00 | 58 | 1015.5 |
| 20260503230824 | 56 | 340 | 8.7 | 19.1 | 0.00 | 0.06 | 0.00 | 59 | 1015.4 |
| 20260503230726 | 56 | 286 | 9.6 | 19.1 | 0.00 | 0.06 | 0.00 | 60 | 1015.4 |
| 20260503230624 | 56 | 310 | 8.7 | 19.1 | 0.00 | 0.06 | 0.00 | 59 | 1015.4 |
| 20260503230523 | 56 | 307 | 8.7 | 19.1 | 0.00 | 0.06 | 0.00 | 59 | 1015.4 |
| 20260503230423 | 56 | 307 | 8.7 | 19.1 | 0.00 | 0.06 | 0.00 | 59 | 1015.4 |
| 20260503230324 | 56 | 316 | 7.8 | 19.1 | 0.00 | 0.06 | 0.00 | 59 | 1015.4 |
| 20260503230224 | 56 | 10 | 7.8 | 20.9 | 0.00 | 0.06 | 0.00 | 59 | 1015.4 |
| 20260503230124 | 56 | 323 | 7.8 | 20.9 | 0.00 | 0.06 | 0.00 | 58 | 1015.5 |
| 20260503230016 | 56 | 289 | 7.8 | 20.9 | 0.00 | 0.06 | 0.00 | 58 | 1015.5 |
| 20260503225917 | 56 | 295 | 7.0 | 20.9 | 0.00 | 0.06 | 0.00 | 59 | 1015.5 |
| 20260503225818 | 56 | 327 | 7.0 | 20.9 | 0.00 | 0.06 | 0.00 | 59 | 1015.6 |
| 20260503225717 | 56 | 345 | 7.0 | 20.9 | 0.00 | 0.06 | 0.00 | 59 | 1015.6 |
| 20260503225617 | 56 | 310 | 7.8 | 20.9 | 0.00 | 0.06 | 0.00 | 59 | 1015.6 |
| 20260503225510 | 56 | 287 | 7.8 | 20.9 | 0.00 | 0.06 | 0.00 | 59 | 1015.5 |
| 20260503225412 | 56 | 20 | 7.0 | 20.9 | 0.00 | 0.06 | 0.00 | 59 | 1015.4 |
| 20260503225311 | 56 | 278 | 6.1 | 20.9 | 0.00 | 0.06 | 0.00 | 59 | 1015.4 |
| 20260503225212 | 56 | 330 | 6.1 | 15.6 | 0.00 | 0.06 | 0.00 | 59 | 1015.4 |
| 20260503225112 | 56 | 298 | 7.0 | 15.6 | 0.00 | 0.06 | 0.00 | 59 | 1015.5 |
| 20260503225005 | 56 | 54 | 7.0 | 15.6 | 0.00 | 0.06 | 0.00 | 59 | 1015.6 |
| 20260503224906 | 56 | 355 | 7.0 | 16.5 | 0.00 | 0.06 | 0.00 | 59 | 1015.6 |
| 20260503224809 | 56 | 342 | 7.0 | 16.5 | 0.00 | 0.06 | 0.00 | 59 | 1015.5 |
| 20260503224707 | 56 | 316 | 7.0 | 16.5 | 0.00 | 0.06 | 0.00 | 60 | 1015.6 |
| 20260503224604 | 56 | 297 | 7.0 | 16.5 | 0.00 | 0.06 | 0.00 | 60 | 1015.6 |
| 20260503224503 | 56 | 282 | 7.0 | 16.5 | 0.00 | 0.06 | 0.00 | 60 | 1015.4 |
| 20260503224403 | 56 | 86 | 7.8 | 16.5 | 0.00 | 0.06 | 0.00 | 60 | 1015.5 |
| 20260503224304 | 56 | 118 | 7.8 | 16.5 | 0.00 | 0.06 | 0.00 | 60 | 1015.3 |
| 20260503224203 | 56 | 335 | 8.7 | 16.5 | 0.00 | 0.06 | 0.00 | 60 | 1015.3 |
| 20260503224103 | 56 | 10 | 8.7 | 16.5 | 0.00 | 0.06 | 0.00 | 59 | 1015.4 |
| 20260503224002 | 56 | 324 | 8.7 | 19.1 | 0.00 | 0.06 | 0.00 | 59 | 1015.5 |
| 20260503223905 | 56 | 325 | 9.6 | 19.1 | 0.00 | 0.06 | 0.00 | 59 | 1015.5 |
| 20260503223804 | 56 | 0 | 10.4 | 23.5 | 0.00 | 0.06 | 0.00 | 59 | 1015.6 |
| 20260503223704 | 56 | 35 | 10.4 | 23.5 | 0.00 | 0.06 | 0.00 | 59 | 1015.5 |
| 20260503223602 | 56 | 51 | 9.6 | 23.5 | 0.00 | 0.06 | 0.00 | 60 | 1015.5 |
| 20260503223504 | 56 | 312 | 9.6 | 23.5 | 0.00 | 0.06 | 0.00 | 60 | 1015.5 |
| 20260503223403 | 56 | 314 | 9.6 | 23.5 | 0.00 | 0.06 | 0.00 | 61 | 1015.6 |
| 20260503223303 | 56 | 299 | 9.6 | 23.5 | 0.00 | 0.06 | 0.00 | 61 | 1015.5 |
| 20260503223203 | 56 | 282 | 9.6 | 23.5 | 0.00 | 0.06 | 0.00 | 61 | 1015.4 |
| 20260503223103 | 56 | 305 | 9.6 | 23.5 | 0.00 | 0.06 | 0.00 | 63 | 1015.4 |
| 20260503223004 | 56 | 287 | 8.7 | 23.5 | 0.00 | 0.06 | 0.00 | 63 | 1015.5 |
| 20260503222904 | 56 | 292 | 7.8 | 23.5 | 0.00 | 0.06 | 0.00 | 63 | 1015.4 |
| 20260503222802 | 56 | 324 | 7.8 | 18.2 | 0.00 | 0.06 | 0.00 | 64 | 1015.4 |
| 20260503222702 | 56 | 303 | 7.8 | 16.5 | 0.00 | 0.06 | 0.00 | 64 | 1015.4 |
| 20260503222602 | 56 | 355 | 7.8 | 16.5 | 0.00 | 0.06 | 0.00 | 64 | 1015.4 |
| 20260503222502 | 56 | 30 | 8.7 | 22.6 | 0.00 | 0.06 | 0.00 | 63 | 1015.3 |
| 20260503222400 | 56 | 304 | 9.6 | 22.6 | 0.00 | 0.06 | 0.00 | 63 | 1015.3 |
| 20260503222256 | 56 | 14 | 8.7 | 22.6 | 0.00 | 0.06 | 0.00 | 63 | 1015.3 |
| 20260503222156 | 56 | 328 | 8.7 | 22.6 | 0.00 | 0.06 | 0.00 | 63 | 1015.3 |
| 20260503222056 | 56 | 279 | 7.8 | 22.6 | 0.00 | 0.06 | 0.00 | 63 | 1015.4 |
| 20260503221954 | 56 | 330 | 8.7 | 22.6 | 0.00 | 0.06 | 0.00 | 64 | 1015.4 |
| 20260503221854 | 56 | 341 | 8.7 | 22.6 | 0.00 | 0.06 | 0.00 | 63 | 1015.3 |
| 20260503221752 | 56 | 349 | 9.6 | 22.6 | 0.00 | 0.06 | 0.00 | 63 | 1015.4 |
| 20260503221649 | 56 | 286 | 9.6 | 22.6 | 0.00 | 0.06 | 0.00 | 63 | 1015.3 |
| 20260503221548 | 56 | 264 | 9.6 | 22.6 | 0.00 | 0.06 | 0.00 | 62 | 1015.4 |
| 20260503221448 | 56 | 306 | 9.6 | 22.6 | 0.00 | 0.06 | 0.00 | 63 | 1015.4 |
| 20260503221348 | 56 | 328 | 9.6 | 22.6 | 0.00 | 0.06 | 0.00 | 62 | 1015.2 |
| 20260503221242 | 56 | 259 | 10.4 | 22.6 | 0.00 | 0.06 | 0.00 | 62 | 1015.4 |
| 20260503221142 | 56 | 253 | 10.4 | 22.6 | 0.00 | 0.06 | 0.00 | 62 | 1015.3 |
| 20260503221043 | 56 | 307 | 10.4 | 22.6 | 0.00 | 0.06 | 0.00 | 61 | 1015.3 |
| 20260503220943 | 56 | 14 | 10.4 | 22.6 | 0.00 | 0.06 | 0.00 | 61 | 1015.4 |
| 20260503220843 | 56 | 314 | 10.4 | 22.6 | 0.00 | 0.06 | 0.00 | 62 | 1015.4 |
| 20260503220737 | 56 | 343 | 9.6 | 26.1 | 0.00 | 0.06 | 0.00 | 62 | 1015.4 |
| 20260503220637 | 56 | 315 | 9.6 | 26.1 | 0.00 | 0.06 | 0.00 | 63 | 1015.3 |
| 20260503220537 | 56 | 332 | 9.6 | 26.1 | 0.00 | 0.06 | 0.00 | 64 | 1015.3 |
| 20260503220438 | 56 | 297 | 8.7 | 26.1 | 0.00 | 0.06 | 0.00 | 65 | 1015.3 |
| 20260503220334 | 56 | 286 | 7.8 | 26.1 | 0.00 | 0.06 | 0.00 | 64 | 1015.1 |
| 20260503220232 | 56 | 5 | 7.8 | 26.1 | 0.00 | 0.06 | 0.00 | 64 | 1015.3 |
| 20260503220132 | 56 | 303 | 7.8 | 26.1 | 0.00 | 0.06 | 0.00 | 64 | 1015.2 |
| 20260503220031 | 56 | 328 | 7.8 | 26.1 | 0.00 | 0.06 | 0.00 | 64 | 1015.2 |
| 20260503215932 | 56 | 322 | 7.8 | 26.1 | 0.00 | 0.06 | 0.00 | 64 | 1015.3 |
| 20260503215832 | 56 | 336 | 7.8 | 26.1 | 0.00 | 0.06 | 0.00 | 64 | 1015.3 |
| 20260503215732 | 56 | 338 | 7.8 | 25.2 | 0.00 | 0.06 | 0.00 | 63 | 1015.3 |
| 20260503215632 | 56 | 320 | 7.8 | 14.8 | 0.00 | 0.06 | 0.00 | 64 | 1015.2 |
| 20260503215532 | 56 | 345 | 7.8 | 20.0 | 0.00 | 0.06 | 0.00 | 64 | 1015.3 |
| 20260503215432 | 56 | 341 | 8.7 | 21.7 | 0.00 | 0.06 | 0.00 | 64 | 1015.2 |
| 20260503215332 | 56 | 299 | 8.7 | 21.7 | 0.00 | 0.06 | 0.00 | 65 | 1015.4 |
| 20260503215232 | 56 | 36 | 9.6 | 21.7 | 0.00 | 0.06 | 0.00 | 65 | 1015.3 |
| 20260503215131 | 56 | 19 | 10.4 | 21.7 | 0.00 | 0.06 | 0.00 | 65 | 1015.3 |
| 20260503215032 | 56 | 336 | 10.4 | 21.7 | 0.00 | 0.06 | 0.00 | 65 | 1015.1 |
| 20260503214931 | 56 | 356 | 10.4 | 21.7 | 0.00 | 0.06 | 0.00 | 65 | 1015.2 |
| 20260503214831 | 56 | 270 | 11.3 | 21.7 | 0.00 | 0.06 | 0.00 | 65 | 1015.1 |
| 20260503214731 | 56 | 299 | 11.3 | 21.7 | 0.00 | 0.06 | 0.00 | 65 | 1015.1 |
| 20260503214634 | 56 | 325 | 11.3 | 21.7 | 0.00 | 0.06 | 0.00 | 65 | 1015.3 |
| 20260503214529 | 56 | 302 | 11.3 | 26.1 | 0.00 | 0.06 | 0.00 | 65 | 1015.2 |
| 20260503214426 | 56 | 60 | 11.3 | 26.1 | 0.00 | 0.06 | 0.00 | 65 | 1015.2 |
| 20260503214327 | 56 | 298 | 11.3 | 26.1 | 0.00 | 0.06 | 0.00 | 65 | 1015.1 |
| 20260503214225 | 56 | 328 | 11.3 | 26.1 | 0.00 | 0.06 | 0.00 | 65 | 1015.2 |
| 20260503214126 | 56 | 324 | 11.3 | 26.1 | 0.00 | 0.06 | 0.00 | 65 | 1015.2 |
| 20260503214020 | 56 | 210 | 11.3 | 26.1 | 0.00 | 0.06 | 0.00 | 65 | 1015.3 |
| 20260503213921 | 56 | 303 | 10.4 | 26.1 | 0.00 | 0.06 | 0.00 | 65 | 1015.3 |
| 20260503213821 | 56 | 326 | 10.4 | 26.1 | 0.00 | 0.06 | 0.00 | 65 | 1015.1 |
| 20260503213720 | 56 | 319 | 10.4 | 28.7 | 0.00 | 0.06 | 0.00 | 65 | 1015.3 |
| 20260503213620 | 56 | 301 | 9.6 | 28.7 | 0.00 | 0.06 | 0.00 | 64 | 1015.1 |
| 20260503213515 | 56 | 307 | 9.6 | 28.7 | 0.00 | 0.06 | 0.00 | 64 | 1015.3 |
| 20260503213416 | 56 | 314 | 9.6 | 28.7 | 0.00 | 0.06 | 0.00 | 64 | 1015.4 |
| 20260503213317 | 56 | 304 | 9.6 | 28.7 | 0.00 | 0.06 | 0.00 | 65 | 1015.3 |
| 20260503213214 | 56 | 299 | 9.6 | 28.7 | 0.00 | 0.06 | 0.00 | 65 | 1015.3 |
| 20260503213115 | 56 | 289 | 8.7 | 28.7 | 0.00 | 0.06 | 0.00 | 66 | 1015.2 |
| 20260503213010 | 56 | 290 | 8.7 | 28.7 | 0.00 | 0.06 | 0.00 | 66 | 1015.3 |
| 20260503212908 | 56 | 280 | 8.7 | 28.7 | 0.00 | 0.06 | 0.00 | 66 | 1015.2 |
| 20260503212807 | 56 | 14 | 7.8 | 28.7 | 0.00 | 0.06 | 0.00 | 66 | 1015.1 |
| 20260503212710 | 56 | 262 | 8.7 | 16.5 | 0.00 | 0.06 | 0.00 | 67 | 1015.2 |
| 20260503212608 | 56 | 37 | 8.7 | 16.5 | 0.00 | 0.06 | 0.00 | 67 | 1015.1 |
| 20260503212508 | 56 | 338 | 8.7 | 16.5 | 0.00 | 0.06 | 0.00 | 66 | 1015.1 |
| 20260503212407 | 55 | 326 | 8.7 | 16.5 | 0.00 | 0.06 | 0.00 | 66 | 1015.1 |
| 20260503212308 | 55 | 320 | 8.7 | 16.5 | 0.00 | 0.06 | 0.00 | 66 | 1015.1 |
| 20260503212207 | 55 | 314 | 9.6 | 18.2 | 0.00 | 0.06 | 0.00 | 66 | 1015.1 |
| 20260503212104 | 55 | 305 | 9.6 | 31.3 | 0.00 | 0.06 | 0.00 | 66 | 1015.0 |
| 20260503212004 | 55 | 293 | 10.4 | 31.3 | 0.00 | 0.06 | 0.00 | 66 | 1014.9 |
| 20260503211904 | 55 | 324 | 11.3 | 31.3 | 0.00 | 0.06 | 0.00 | 66 | 1015.0 |
| 20260503211804 | 55 | 356 | 10.4 | 31.3 | 0.00 | 0.06 | 0.00 | 66 | 1015.1 |
| 20260503211703 | 55 | 10 | 10.4 | 31.3 | 0.00 | 0.06 | 0.00 | 65 | 1015.2 |
| 20260503211604 | 55 | 35 | 11.3 | 31.3 | 0.00 | 0.06 | 0.00 | 65 | 1015.3 |
| 20260503211504 | 55 | 338 | 11.3 | 31.3 | 0.00 | 0.06 | 0.00 | 65 | 1015.2 |
| 20260503211403 | 55 | 333 | 11.3 | 31.3 | 0.00 | 0.06 | 0.00 | 65 | 1015.2 |
| 20260503211306 | 55 | 68 | 11.3 | 31.3 | 0.00 | 0.06 | 0.00 | 66 | 1015.1 |
| 20260503211203 | 56 | 332 | 10.4 | 31.3 | 0.00 | 0.06 | 0.00 | 66 | 1015.4 |
| 20260503211103 | 56 | 314 | 10.4 | 23.5 | 0.00 | 0.06 | 0.00 | 68 | 1015.1 |
| 20260503211003 | 56 | 17 | 10.4 | 23.5 | 0.00 | 0.06 | 0.00 | 67 | 1015.3 |
| 20260503210904 | 56 | 340 | 10.4 | 23.5 | 0.00 | 0.06 | 0.00 | 68 | 1015.1 |
| 20260503210803 | 56 | 338 | 10.4 | 23.5 | 0.00 | 0.06 | 0.00 | 67 | 1015.0 |
| 20260503210704 | 56 | 40 | 10.4 | 23.5 | 0.00 | 0.06 | 0.00 | 67 | 1015.1 |
| 20260503210603 | 56 | 324 | 9.6 | 24.3 | 0.00 | 0.06 | 0.00 | 67 | 1015.1 |
| 20260503210504 | 56 | 276 | 9.6 | 24.3 | 0.00 | 0.06 | 0.00 | 67 | 1015.1 |
| 20260503210403 | 56 | 314 | 9.6 | 24.3 | 0.00 | 0.06 | 0.00 | 67 | 1015.1 |
| 20260503210303 | 56 | 336 | 9.6 | 24.3 | 0.00 | 0.06 | 0.00 | 67 | 1015.0 |
| 20260503210202 | 56 | 353 | 8.7 | 24.3 | 0.00 | 0.06 | 0.00 | 67 | 1015.1 |
| 20260503210005 | 56 | 318 | 8.7 | 24.3 | 0.00 | 0.06 | 0.00 | 67 | 1015.0 |
| 20260503205904 | 56 | 322 | 8.7 | 24.3 | 0.00 | 0.06 | 0.06 | 67 | 1015.0 |
| 20260503205804 | 56 | 10 | 9.6 | 24.3 | 0.00 | 0.06 | 0.06 | 67 | 1015.0 |
| 20260503205705 | 56 | 327 | 9.6 | 24.3 | 0.00 | 0.06 | 0.06 | 67 | 1015.2 |
| 20260503205602 | 56 | 347 | 9.6 | 22.6 | 0.00 | 0.06 | 0.06 | 67 | 1015.2 |
| 20260503205503 | 56 | 74 | 9.6 | 22.6 | 0.00 | 0.06 | 0.06 | 67 | 1015.1 |
| 20260503205404 | 56 | 347 | 8.7 | 22.6 | 0.00 | 0.06 | 0.06 | 68 | 1015.0 |
| 20260503205304 | 56 | 331 | 8.7 | 22.6 | 0.00 | 0.06 | 0.06 | 68 | 1015.0 |
| 20260503205204 | 56 | 24 | 8.7 | 22.6 | 0.00 | 0.06 | 0.06 | 68 | 1015.1 |
| 20260503205103 | 56 | 317 | 9.6 | 22.6 | 0.00 | 0.06 | 0.06 | 68 | 1015.0 |
| 20260503205002 | 56 | 330 | 9.6 | 22.6 | 0.00 | 0.06 | 0.06 | 69 | 1015.0 |
| 20260503204904 | 56 | 276 | 9.6 | 22.6 | 0.00 | 0.06 | 0.06 | 69 | 1014.9 |
| 20260503204802 | 56 | 312 | 9.6 | 22.6 | 0.00 | 0.06 | 0.06 | 69 | 1015.0 |
| 20260503204704 | 56 | 336 | 9.6 | 19.1 | 0.00 | 0.06 | 0.06 | 69 | 1014.9 |
| 20260503204602 | 56 | 331 | 9.6 | 19.1 | 0.00 | 0.06 | 0.06 | 69 | 1015.0 |
| 20260503204504 | 56 | 315 | 9.6 | 19.1 | 0.00 | 0.06 | 0.06 | 69 | 1014.9 |
| 20260503204403 | 56 | 280 | 9.6 | 19.1 | 0.00 | 0.06 | 0.06 | 69 | 1014.9 |
| 20260503204302 | 56 | 0 | 9.6 | 19.1 | 0.00 | 0.06 | 0.06 | 69 | 1014.9 |
| 20260503204204 | 56 | 316 | 9.6 | 19.1 | 0.00 | 0.06 | 0.06 | 69 | 1014.9 |
| 20260503204106 | 56 | 46 | 9.6 | 19.1 | 0.00 | 0.06 | 0.06 | 69 | 1014.8 |
| 20260503204002 | 56 | 301 | 8.7 | 19.1 | 0.00 | 0.06 | 0.06 | 69 | 1014.9 |
| 20260503203902 | 56 | 333 | 7.8 | 19.1 | 0.00 | 0.06 | 0.06 | 69 | 1014.9 |
| 20260503203802 | 56 | 314 | 7.8 | 19.1 | 0.00 | 0.06 | 0.06 | 69 | 1015.0 |
| 20260503203704 | 56 | 307 | 7.0 | 18.2 | 0.00 | 0.06 | 0.06 | 69 | 1014.9 |
| 20260503203604 | 56 | 34 | 7.0 | 18.2 | 0.00 | 0.06 | 0.06 | 69 | 1015.0 |
| 20260503203504 | 56 | 289 | 7.0 | 18.2 | 0.00 | 0.06 | 0.06 | 71 | 1015.0 |
| 20260503203402 | 56 | 311 | 7.0 | 18.2 | 0.00 | 0.06 | 0.06 | 71 | 1014.8 |
| 20260503203302 | 56 | 33 | 7.0 | 14.8 | 0.00 | 0.06 | 0.06 | 71 | 1014.8 |
| 20260503203203 | 56 | 5 | 7.8 | 14.8 | 0.00 | 0.06 | 0.06 | 71 | 1014.8 |
| 20260503203102 | 56 | 291 | 8.7 | 19.1 | 0.00 | 0.06 | 0.06 | 71 | 1014.7 |
| 20260503203002 | 56 | 27 | 8.7 | 19.1 | 0.00 | 0.06 | 0.06 | 71 | 1014.8 |
| 20260503202904 | 56 | 319 | 8.7 | 19.1 | 0.00 | 0.06 | 0.06 | 72 | 1014.9 |
| 20260503202804 | 56 | 279 | 8.7 | 19.1 | 0.00 | 0.06 | 0.06 | 72 | 1014.8 |
| 20260503202703 | 56 | 300 | 9.6 | 19.1 | 0.00 | 0.06 | 0.06 | 72 | 1014.8 |
| 20260503202602 | 56 | 322 | 8.7 | 19.1 | 0.00 | 0.06 | 0.06 | 71 | 1014.8 |
| 20260503202503 | 55 | 307 | 8.7 | 19.1 | 0.00 | 0.06 | 0.06 | 72 | 1014.9 |
| 20260503202405 | 55 | 303 | 8.7 | 19.1 | 0.00 | 0.06 | 0.06 | 71 | 1014.9 |
| 20260503202304 | 55 | 328 | 8.7 | 19.1 | 0.00 | 0.06 | 0.06 | 71 | 1014.9 |
| 20260503202203 | 55 | 345 | 7.8 | 19.1 | 0.00 | 0.06 | 0.06 | 72 | 1014.9 |
| 20260503202103 | 55 | 308 | 7.8 | 19.1 | 0.00 | 0.06 | 0.06 | 72 | 1015.0 |
| 20260503202003 | 55 | 327 | 7.8 | 19.1 | 0.00 | 0.06 | 0.06 | 72 | 1014.8 |
| 20260503201902 | 54 | 331 | 7.8 | 19.1 | 0.00 | 0.06 | 0.06 | 72 | 1015.0 |
| 20260503201803 | 54 | 306 | 8.7 | 19.1 | 0.00 | 0.06 | 0.06 | 72 | 1014.9 |
| 20260503201705 | 54 | 334 | 8.7 | 19.1 | 0.00 | 0.06 | 0.06 | 72 | 1015.0 |
| 20260503201605 | 54 | 347 | 8.7 | 16.5 | 0.00 | 0.06 | 0.06 | 72 | 1015.1 |
| 20260503201502 | 54 | 351 | 8.7 | 19.1 | 0.00 | 0.06 | 0.06 | 72 | 1014.9 |
| 20260503201404 | 54 | 318 | 9.6 | 19.1 | 0.00 | 0.06 | 0.06 | 72 | 1015.0 |
| 20260503201303 | 54 | 295 | 10.4 | 19.1 | 0.00 | 0.06 | 0.06 | 72 | 1014.9 |
| 20260503201203 | 54 | 280 | 11.3 | 22.6 | 0.00 | 0.06 | 0.06 | 72 | 1014.9 |
| 20260503201107 | 54 | 301 | 11.3 | 24.3 | 0.00 | 0.06 | 0.06 | 71 | 1015.0 |
| 20260503201002 | 54 | 5 | 11.3 | 24.3 | 0.00 | 0.06 | 0.06 | 70 | 1015.1 |
| 20260503200902 | 54 | 282 | 12.2 | 24.3 | 0.00 | 0.06 | 0.06 | 70 | 1015.2 |
| 20260503200802 | 54 | 0 | 12.2 | 24.3 | 0.00 | 0.06 | 0.06 | 70 | 1015.0 |
| 20260503200705 | 54 | 318 | 12.2 | 24.3 | 0.00 | 0.06 | 0.06 | 70 | 1015.0 |
| 20260503200602 | 55 | 22 | 12.2 | 24.3 | 0.00 | 0.06 | 0.06 | 69 | 1015.0 |
| 20260503200502 | 55 | 290 | 12.2 | 24.3 | 0.00 | 0.06 | 0.06 | 69 | 1015.2 |
| 20260503200402 | 55 | 356 | 12.2 | 24.3 | 0.00 | 0.06 | 0.06 | 69 | 1015.2 |
| 20260503200304 | 55 | 324 | 11.3 | 24.3 | 0.00 | 0.06 | 0.06 | 69 | 1015.2 |
| 20260503200203 | 56 | 350 | 10.4 | 24.3 | 0.01 | 0.06 | 0.06 | 70 | 1015.2 |
| 20260503200002 | 56 | 31 | 10.4 | 21.7 | 0.02 | 0.06 | 0.06 | 69 | 1015.0 |
| 20260503195902 | 56 | 341 | 10.4 | 21.7 | 0.02 | 0.06 | 0.06 | 69 | 1015.0 |
| 20260503195801 | 56 | 340 | 9.6 | 21.7 | 0.02 | 0.06 | 0.06 | 69 | 1014.8 |
| 20260503195702 | 56 | 253 | 8.7 | 21.7 | 0.02 | 0.06 | 0.06 | 69 | 1014.8 |
| 20260503195600 | 56 | 340 | 8.7 | 20.0 | 0.02 | 0.06 | 0.06 | 69 | 1014.9 |
| 20260503195500 | 56 | 0 | 8.7 | 20.0 | 0.02 | 0.06 | 0.06 | 69 | 1015.0 |
| 20260503195401 | 56 | 292 | 8.7 | 20.0 | 0.02 | 0.06 | 0.06 | 69 | 1015.1 |
| 20260503195301 | 56 | 5 | 8.7 | 20.0 | 0.02 | 0.06 | 0.06 | 69 | 1014.8 |
| 20260503195200 | 56 | 316 | 8.7 | 18.2 | 0.02 | 0.06 | 0.06 | 69 | 1014.8 |
| 20260503195101 | 56 | 347 | 7.8 | 18.2 | 0.02 | 0.06 | 0.06 | 69 | 1014.8 |
| 20260503195001 | 56 | 264 | 7.8 | 17.4 | 0.02 | 0.06 | 0.06 | 70 | 1014.8 |
| 20260503194900 | 56 | 10 | 7.8 | 17.4 | 0.02 | 0.06 | 0.06 | 70 | 1014.9 |
| 20260503194802 | 56 | 331 | 7.0 | 17.4 | 0.02 | 0.06 | 0.06 | 70 | 1014.8 |
| 20260503194702 | 56 | 329 | 7.0 | 17.4 | 0.02 | 0.06 | 0.06 | 70 | 1014.7 |
| 20260503194601 | 56 | 294 | 7.8 | 17.4 | 0.02 | 0.06 | 0.06 | 70 | 1014.7 |
| 20260503194501 | 55 | 311 | 7.8 | 17.4 | 0.03 | 0.06 | 0.06 | 70 | 1014.6 |
| 20260503194402 | 55 | 336 | 7.0 | 17.4 | 0.03 | 0.06 | 0.06 | 70 | 1014.7 |
| 20260503194302 | 55 | 315 | 7.0 | 17.4 | 0.03 | 0.06 | 0.06 | 71 | 1014.8 |
| 20260503194202 | 55 | 301 | 7.0 | 15.6 | 0.03 | 0.06 | 0.06 | 71 | 1014.8 |
| 20260503194101 | 55 | 330 | 7.0 | 13.9 | 0.03 | 0.06 | 0.06 | 71 | 1014.8 |
| 20260503194001 | 55 | 337 | 7.0 | 13.9 | 0.03 | 0.06 | 0.06 | 71 | 1014.8 |
| 20260503193902 | 55 | 247 | 7.8 | 13.9 | 0.03 | 0.06 | 0.06 | 72 | 1014.7 |
| 20260503193805 | 55 | 278 | 7.8 | 16.5 | 0.03 | 0.06 | 0.06 | 72 | 1014.8 |
| 20260503193702 | 55 | 305 | 7.8 | 16.5 | 0.03 | 0.06 | 0.06 | 72 | 1014.8 |
| 20260503193602 | 55 | 314 | 8.7 | 16.5 | 0.03 | 0.06 | 0.06 | 72 | 1014.7 |
| 20260503193502 | 55 | 306 | 8.7 | 16.5 | 0.03 | 0.06 | 0.06 | 72 | 1014.5 |
| 20260503193402 | 55 | 324 | 8.7 | 16.5 | 0.03 | 0.06 | 0.06 | 72 | 1014.8 |
| 20260503193302 | 55 | 304 | 9.6 | 18.2 | 0.03 | 0.06 | 0.06 | 72 | 1014.8 |
| 20260503193200 | 55 | 346 | 9.6 | 21.7 | 0.03 | 0.06 | 0.06 | 72 | 1014.8 |
| 20260503193101 | 54 | 308 | 9.6 | 21.7 | 0.03 | 0.06 | 0.06 | 72 | 1014.8 |
| 20260503193001 | 54 | 234 | 10.4 | 21.7 | 0.03 | 0.06 | 0.06 | 72 | 1014.7 |
| 20260503192901 | 54 | 309 | 10.4 | 21.7 | 0.03 | 0.06 | 0.06 | 72 | 1014.8 |
| 20260503192802 | 54 | 0 | 10.4 | 21.7 | 0.03 | 0.06 | 0.06 | 72 | 1014.8 |
| 20260503192704 | 54 | 5 | 10.4 | 21.7 | 0.03 | 0.06 | 0.06 | 72 | 1014.7 |
| 20260503192601 | 54 | 318 | 9.6 | 21.7 | 0.03 | 0.06 | 0.06 | 72 | 1014.8 |
| 20260503192501 | 54 | 349 | 9.6 | 21.7 | 0.03 | 0.06 | 0.06 | 73 | 1014.8 |
| 20260503192406 | 54 | 330 | 8.7 | 21.7 | 0.03 | 0.06 | 0.06 | 73 | 1014.8 |
| 20260503192302 | 54 | 346 | 8.7 | 21.7 | 0.03 | 0.06 | 0.06 | 74 | 1014.8 |
| 20260503192200 | 54 | 272 | 8.7 | 21.7 | 0.03 | 0.06 | 0.06 | 74 | 1014.6 |
| 20260503192100 | 54 | 60 | 8.7 | 21.7 | 0.03 | 0.06 | 0.06 | 75 | 1014.7 |
| 20260503192001 | 53 | 329 | 7.8 | 20.9 | 0.03 | 0.06 | 0.06 | 75 | 1014.6 |
| 20260503191906 | 53 | 297 | 7.8 | 20.9 | 0.03 | 0.06 | 0.06 | 76 | 1014.8 |
| 20260503191802 | 53 | 324 | 7.8 | 17.4 | 0.03 | 0.06 | 0.06 | 76 | 1014.8 |
| 20260503191703 | 53 | 19 | 7.8 | 20.0 | 0.03 | 0.06 | 0.06 | 76 | 1014.8 |
| 20260503191600 | 53 | 46 | 8.7 | 20.0 | 0.03 | 0.06 | 0.06 | 76 | 1014.4 |
| 20260503191502 | 53 | 284 | 9.6 | 20.9 | 0.03 | 0.06 | 0.06 | 77 | 1014.6 |
| 20260503191403 | 53 | 331 | 9.6 | 20.9 | 0.03 | 0.06 | 0.06 | 77 | 1014.6 |
| 20260503191301 | 53 | 5 | 10.4 | 20.9 | 0.03 | 0.06 | 0.06 | 77 | 1014.6 |
| 20260503191202 | 53 | 327 | 10.4 | 20.9 | 0.03 | 0.06 | 0.06 | 77 | 1014.5 |
| 20260503191102 | 53 | 327 | 10.4 | 20.9 | 0.03 | 0.06 | 0.06 | 77 | 1014.4 |
| 20260503191000 | 53 | 266 | 11.3 | 20.9 | 0.03 | 0.06 | 0.06 | 77 | 1014.5 |
| 20260503190901 | 53 | 335 | 11.3 | 20.9 | 0.03 | 0.06 | 0.06 | 77 | 1014.5 |
| 20260503190801 | 53 | 340 | 11.3 | 20.9 | 0.03 | 0.06 | 0.06 | 77 | 1014.7 |
| 20260503190704 | 53 | 5 | 11.3 | 21.7 | 0.03 | 0.06 | 0.06 | 77 | 1014.7 |
| 20260503190601 | 53 | 31 | 11.3 | 21.7 | 0.03 | 0.06 | 0.06 | 77 | 1014.6 |
| 20260503190501 | 53 | 340 | 11.3 | 21.7 | 0.03 | 0.06 | 0.06 | 76 | 1014.9 |
| 20260503190401 | 53 | 292 | 11.3 | 21.7 | 0.03 | 0.06 | 0.06 | 76 | 1014.7 |
| 20260503190303 | 53 | 328 | 11.3 | 21.7 | 0.03 | 0.06 | 0.06 | 76 | 1014.9 |
| 20260503190201 | 53 | 24 | 10.4 | 21.7 | 0.02 | 0.06 | 0.06 | 75 | 1014.8 |
| 20260503190000 | 54 | 338 | 9.6 | 21.7 | 0.02 | 0.05 | 0.05 | 74 | 1015.0 |
| 20260503185901 | 54 | 20 | 9.6 | 21.7 | 0.02 | 0.05 | 0.04 | 74 | 1014.9 |
| 20260503185801 | 54 | 16 | 9.6 | 21.7 | 0.01 | 0.04 | 0.04 | 74 | 1014.7 |
| 20260503185706 | 55 | 321 | 9.6 | 20.9 | 0.01 | 0.04 | 0.04 | 74 | 1014.7 |
| 20260503185601 | 55 | 318 | 9.6 | 20.9 | 0.01 | 0.04 | 0.04 | 73 | 1014.5 |
| 20260503185503 | 55 | 317 | 9.6 | 20.9 | 0.01 | 0.04 | 0.04 | 73 | 1014.4 |
| 20260503185401 | 55 | 58 | 9.6 | 20.9 | 0.01 | 0.04 | 0.04 | 73 | 1014.3 |
| 20260503185301 | 55 | 330 | 8.7 | 20.9 | 0.01 | 0.04 | 0.04 | 73 | 1014.3 |
| 20260503185202 | 55 | 22 | 8.7 | 20.9 | 0.01 | 0.04 | 0.04 | 73 | 1014.2 |
| 20260503185102 | 55 | 16 | 8.7 | 20.9 | 0.01 | 0.04 | 0.04 | 73 | 1014.2 |
| 20260503185001 | 55 | 36 | 8.7 | 20.9 | 0.01 | 0.04 | 0.04 | 73 | 1014.3 |
| 20260503184901 | 55 | 301 | 8.7 | 20.9 | 0.01 | 0.04 | 0.04 | 73 | 1014.1 |
| 20260503184800 | 54 | 331 | 8.7 | 18.2 | 0.01 | 0.04 | 0.04 | 73 | 1014.0 |
| 20260503184706 | 54 | 309 | 8.7 | 18.2 | 0.01 | 0.04 | 0.04 | 74 | 1014.0 |
| 20260503184602 | 54 | 329 | 8.7 | 18.2 | 0.01 | 0.04 | 0.03 | 74 | 1014.0 |
| 20260503184501 | 54 | 351 | 8.7 | 18.2 | 0.00 | 0.03 | 0.03 | 74 | 1014.3 |
| 20260503184401 | 54 | 341 | 8.7 | 18.2 | 0.00 | 0.03 | 0.03 | 74 | 1014.2 |
| 20260503184301 | 54 | 5 | 8.7 | 18.2 | 0.00 | 0.03 | 0.03 | 74 | 1014.2 |
| 20260503184201 | 54 | 291 | 9.6 | 18.2 | 0.00 | 0.03 | 0.03 | 74 | 1014.2 |
| 20260503184102 | 54 | 354 | 9.6 | 18.2 | 0.00 | 0.03 | 0.03 | 73 | 1014.1 |
| 20260503184001 | 54 | 291 | 9.6 | 18.2 | 0.00 | 0.03 | 0.03 | 73 | 1014.1 |
| 20260503183900 | 54 | 329 | 9.6 | 21.7 | 0.00 | 0.03 | 0.03 | 74 | 1014.1 |
| 20260503183802 | 54 | 335 | 9.6 | 21.7 | 0.00 | 0.03 | 0.03 | 74 | 1014.0 |
| 20260503183702 | 54 | 351 | 10.4 | 21.7 | 0.00 | 0.03 | 0.03 | 73 | 1014.1 |
| 20260503183601 | 54 | 351 | 10.4 | 24.3 | 0.00 | 0.03 | 0.03 | 73 | 1014.2 |
| 20260503183501 | 54 | 14 | 10.4 | 24.3 | 0.00 | 0.03 | 0.03 | 73 | 1014.4 |
| 20260503183401 | 54 | 293 | 11.3 | 24.3 | 0.00 | 0.03 | 0.03 | 73 | 1014.4 |
| 20260503183302 | 54 | 296 | 11.3 | 24.3 | 0.00 | 0.03 | 0.03 | 73 | 1014.2 |
| 20260503183201 | 54 | 77 | 11.3 | 24.3 | 0.00 | 0.03 | 0.03 | 72 | 1014.0 |
| 20260503183100 | 54 | 280 | 11.3 | 24.3 | 0.00 | 0.03 | 0.03 | 72 | 1014.1 |
| 20260503183005 | 54 | 311 | 11.3 | 24.3 | 0.00 | 0.03 | 0.03 | 71 | 1014.2 |
| 20260503182902 | 55 | 330 | 11.3 | 24.3 | 0.00 | 0.03 | 0.03 | 70 | 1014.0 |
| 20260503182800 | 55 | 277 | 11.3 | 24.3 | 0.00 | 0.03 | 0.03 | 69 | 1014.1 |
| 20260503182701 | 55 | 347 | 9.6 | 24.3 | 0.00 | 0.03 | 0.03 | 68 | 1014.0 |
| 20260503182602 | 56 | 305 | 9.6 | 24.3 | 0.00 | 0.03 | 0.03 | 68 | 1014.2 |
| 20260503182501 | 56 | 300 | 8.7 | 24.3 | 0.00 | 0.03 | 0.03 | 68 | 1013.7 |
| 20260503182401 | 56 | 293 | 8.7 | 21.7 | 0.00 | 0.03 | 0.03 | 69 | 1013.7 |
| 20260503182300 | 56 | 301 | 7.8 | 21.7 | 0.00 | 0.03 | 0.03 | 70 | 1013.9 |
| 20260503182201 | 56 | 329 | 8.7 | 19.1 | 0.00 | 0.03 | 0.03 | 70 | 1013.6 |
| 20260503182101 | 56 | 29 | 8.7 | 20.0 | 0.00 | 0.03 | 0.03 | 70 | 1013.6 |
| 20260503182002 | 56 | 282 | 8.7 | 20.0 | 0.00 | 0.03 | 0.03 | 70 | 1013.8 |
| 20260503181859 | 56 | 323 | 7.8 | 20.0 | 0.00 | 0.03 | 0.03 | 69 | 1013.6 |
| 20260503181758 | 56 | 342 | 8.7 | 20.0 | 0.00 | 0.03 | 0.03 | 69 | 1013.5 |
| 20260503181657 | 56 | 282 | 8.7 | 20.0 | 0.00 | 0.03 | 0.03 | 69 | 1013.6 |
| 20260503181556 | 55 | 10 | 9.6 | 20.0 | 0.00 | 0.03 | 0.03 | 69 | 1013.5 |
| 20260503181455 | 55 | 356 | 9.6 | 20.0 | 0.00 | 0.03 | 0.03 | 69 | 1013.5 |
| 20260503181350 | 55 | 334 | 9.6 | 20.0 | 0.00 | 0.03 | 0.03 | 69 | 1013.8 |
| 20260503181249 | 55 | 336 | 9.6 | 20.0 | 0.00 | 0.03 | 0.03 | 69 | 1013.7 |
| 20260503181149 | 55 | 346 | 8.7 | 20.0 | 0.00 | 0.03 | 0.03 | 69 | 1013.7 |
| 20260503181049 | 55 | 334 | 8.7 | 19.1 | 0.00 | 0.03 | 0.03 | 69 | 1013.7 |
| 20260503180950 | 55 | 330 | 8.7 | 19.1 | 0.00 | 0.03 | 0.03 | 69 | 1013.7 |
| 20260503180842 | 55 | 317 | 8.7 | 19.1 | 0.00 | 0.03 | 0.03 | 69 | 1013.7 |
| 20260503180742 | 55 | 309 | 7.8 | 19.1 | 0.00 | 0.03 | 0.03 | 70 | 1013.8 |
| 20260503180645 | 55 | 312 | 7.8 | 17.4 | 0.00 | 0.03 | 0.03 | 70 | 1013.8 |
| 20260503180543 | 55 | 315 | 7.8 | 16.5 | 0.00 | 0.03 | 0.03 | 70 | 1013.6 |
| 20260503180443 | 55 | 312 | 7.0 | 16.5 | 0.00 | 0.03 | 0.03 | 70 | 1013.7 |
| 20260503180341 | 55 | 294 | 7.0 | 16.5 | 0.00 | 0.03 | 0.03 | 70 | 1013.8 |
| 20260503180238 | 55 | 27 | 7.0 | 16.5 | 0.00 | 0.03 | 0.03 | 70 | 1013.8 |
| 20260503180139 | 55 | 19 | 7.0 | 19.1 | 0.00 | 0.03 | 0.03 | 70 | 1013.8 |
| 20260503180039 | 54 | 354 | 7.8 | 20.0 | 0.00 | 0.03 | 0.03 | 70 | 1013.5 |
| 20260503175938 | 54 | 336 | 7.8 | 20.0 | 0.00 | 0.03 | 0.03 | 70 | 1013.7 |
| 20260503175836 | 54 | 338 | 7.8 | 20.0 | 0.00 | 0.03 | 0.03 | 70 | 1013.6 |
| 20260503175736 | 54 | 0 | 8.7 | 20.0 | 0.00 | 0.03 | 0.03 | 70 | 1013.7 |
| 20260503175636 | 54 | 27 | 9.6 | 20.0 | 0.00 | 0.03 | 0.03 | 70 | 1013.7 |
| 20260503175535 | 54 | 319 | 8.7 | 21.7 | 0.00 | 0.03 | 0.03 | 70 | 1013.4 |
| 20260503175436 | 54 | 325 | 9.6 | 21.7 | 0.00 | 0.03 | 0.03 | 70 | 1013.6 |
| 20260503175336 | 54 | 297 | 9.6 | 21.7 | 0.00 | 0.03 | 0.03 | 70 | 1013.6 |
| 20260503175236 | 54 | 54 | 9.6 | 21.7 | 0.00 | 0.03 | 0.03 | 70 | 1013.6 |
| 20260503175136 | 54 | 5 | 8.7 | 21.7 | 0.00 | 0.03 | 0.03 | 71 | 1013.7 |
| 20260503175036 | 54 | 299 | 8.7 | 21.7 | 0.00 | 0.03 | 0.03 | 71 | 1013.6 |
| 20260503174935 | 54 | 329 | 8.7 | 21.7 | 0.00 | 0.03 | 0.03 | 70 | 1013.5 |
| 20260503174836 | 54 | 299 | 8.7 | 21.7 | 0.00 | 0.03 | 0.03 | 70 | 1013.5 |
| 20260503174734 | 54 | 287 | 8.7 | 25.2 | 0.00 | 0.03 | 0.03 | 71 | 1013.4 |
| 20260503174632 | 54 | 283 | 7.8 | 25.2 | 0.00 | 0.03 | 0.03 | 71 | 1013.7 |
| 20260503174532 | 54 | 251 | 8.7 | 25.2 | 0.00 | 0.03 | 0.03 | 71 | 1013.6 |
| 20260503174431 | 54 | 323 | 9.6 | 25.2 | 0.00 | 0.03 | 0.03 | 71 | 1013.5 |
| 20260503174330 | 54 | 41 | 10.4 | 25.2 | 0.00 | 0.03 | 0.03 | 71 | 1013.6 |
| 20260503174230 | 54 | 313 | 10.4 | 25.2 | 0.00 | 0.03 | 0.03 | 71 | 1013.5 |
| 20260503174131 | 54 | 346 | 10.4 | 25.2 | 0.00 | 0.03 | 0.03 | 71 | 1013.7 |
| 20260503174030 | 54 | 343 | 11.3 | 25.2 | 0.00 | 0.03 | 0.03 | 71 | 1013.7 |
| 20260503173929 | 54 | 5 | 11.3 | 25.2 | 0.00 | 0.03 | 0.03 | 71 | 1013.8 |
| 20260503173830 | 54 | 303 | 11.3 | 25.2 | 0.00 | 0.03 | 0.03 | 71 | 1014.0 |
| 20260503173729 | 54 | 284 | 11.3 | 22.6 | 0.00 | 0.03 | 0.03 | 71 | 1013.7 |
| 20260503173632 | 54 | 274 | 12.2 | 22.6 | 0.00 | 0.03 | 0.03 | 71 | 1013.7 |
| 20260503173529 | 54 | 311 | 12.2 | 22.6 | 0.00 | 0.03 | 0.03 | 70 | 1014.1 |
| 20260503173430 | 54 | 346 | 11.3 | 22.6 | 0.00 | 0.03 | 0.03 | 70 | 1013.9 |
| 20260503173329 | 54 | 316 | 11.3 | 22.6 | 0.00 | 0.03 | 0.03 | 71 | 1014.2 |
| 20260503173230 | 54 | 263 | 12.2 | 26.9 | 0.00 | 0.03 | 0.03 | 71 | 1013.4 |
| 20260503173131 | 54 | 19 | 12.2 | 26.9 | 0.00 | 0.03 | 0.03 | 71 | 1013.7 |
| 20260503173029 | 54 | 261 | 11.3 | 26.9 | 0.00 | 0.03 | 0.03 | 71 | 1013.9 |
| 20260503172930 | 54 | 5 | 11.3 | 26.9 | 0.00 | 0.03 | 0.03 | 71 | 1013.9 |
| 20260503172832 | 55 | 303 | 11.3 | 26.9 | 0.00 | 0.03 | 0.03 | 71 | 1013.7 |
| 20260503172729 | 55 | 316 | 10.4 | 26.9 | 0.00 | 0.03 | 0.03 | 71 | 1013.8 |
| 20260503172629 | 55 | 333 | 10.4 | 26.9 | 0.00 | 0.03 | 0.03 | 70 | 1014.1 |
| 20260503172529 | 54 | 288 | 9.6 | 26.9 | 0.00 | 0.03 | 0.03 | 70 | 1013.7 |
| 20260503172424 | 54 | 301 | 9.6 | 26.9 | 0.00 | 0.03 | 0.03 | 70 | 1013.5 |
| 20260503172322 | 54 | 354 | 8.7 | 26.9 | 0.00 | 0.03 | 0.03 | 69 | 1013.7 |
| 20260503172222 | 54 | 0 | 8.7 | 17.4 | 0.00 | 0.03 | 0.03 | 69 | 1013.7 |
| 20260503172123 | 54 | 345 | 8.7 | 17.4 | 0.00 | 0.03 | 0.03 | 69 | 1013.7 |
| 20260503172022 | 54 | 10 | 10.4 | 26.1 | 0.00 | 0.03 | 0.03 | 69 | 1013.6 |
| 20260503171915 | 54 | 344 | 10.4 | 26.1 | 0.00 | 0.03 | 0.03 | 69 | 1013.4 |
| 20260503171816 | 54 | 324 | 10.4 | 26.1 | 0.00 | 0.03 | 0.03 | 69 | 1013.6 |
| 20260503171714 | 54 | 303 | 11.3 | 26.1 | 0.00 | 0.03 | 0.03 | 69 | 1013.5 |
| 20260503171615 | 54 | 330 | 13.0 | 26.1 | 0.00 | 0.03 | 0.03 | 69 | 1013.8 |
| 20260503171515 | 54 | 351 | 13.0 | 26.1 | 0.00 | 0.03 | 0.03 | 69 | 1013.7 |
| 20260503171408 | 54 | 329 | 13.0 | 26.1 | 0.00 | 0.03 | 0.03 | 69 | 1013.5 |
| 20260503171316 | 54 | 272 | 13.0 | 26.1 | 0.00 | 0.03 | 0.03 | 70 | 1013.5 |
| 20260503171208 | 54 | 280 | 13.0 | 26.1 | 0.00 | 0.03 | 0.03 | 70 | 1013.5 |
| 20260503171108 | 54 | 5 | 13.0 | 26.1 | 0.00 | 0.03 | 0.03 | 71 | 1013.6 |
| 20260503171009 | 54 | 10 | 13.0 | 25.2 | 0.00 | 0.03 | 0.03 | 71 | 1013.4 |
| 20260503170903 | 55 | 295 | 12.2 | 25.2 | 0.00 | 0.03 | 0.03 | 71 | 1013.5 |
| 20260503170803 | 55 | 275 | 11.3 | 25.2 | 0.00 | 0.03 | 0.03 | 71 | 1013.5 |
| 20260503170711 | 55 | 15 | 10.4 | 25.2 | 0.00 | 0.03 | 0.03 | 71 | 1013.3 |
| 20260503170603 | 55 | 274 | 10.4 | 25.2 | 0.00 | 0.03 | 0.03 | 70 | 1013.3 |
| 20260503170504 | 55 | 286 | 10.4 | 25.2 | 0.00 | 0.03 | 0.03 | 70 | 1013.1 |
| 20260503170403 | 55 | 328 | 9.6 | 25.2 | 0.00 | 0.03 | 0.03 | 70 | 1013.1 |
| 20260503170303 | 55 | 21 | 10.4 | 25.2 | 0.00 | 0.03 | 0.03 | 70 | 1012.8 |
| 20260503170207 | 55 | 0 | 10.4 | 25.2 | 0.00 | 0.03 | 0.03 | 70 | 1012.8 |
| 20260503170104 | 55 | 329 | 9.6 | 25.2 | 0.00 | 0.03 | 0.03 | 70 | 1013.1 |
| 20260503160159 | 54 | 304 | 10.4 | 22.6 | 0.00 | 0.03 | 0.03 | 71 | 1013.0 |
| 20260503150918 | 55 | 282 | 11.3 | 23.5 | 0.00 | 0.03 | 0.03 | 69 | 1012.7 |
| 20260503150812 | 55 | 313 | 11.3 | 23.5 | 0.00 | 0.03 | 0.03 | 69 | 1013.0 |
| 20260503150717 | 55 | 356 | 11.3 | 23.5 | 0.00 | 0.03 | 0.03 | 69 | 1012.9 |
| 20260503150612 | 55 | 317 | 11.3 | 23.5 | 0.00 | 0.03 | 0.03 | 69 | 1013.1 |
| 20260503150512 | 55 | 322 | 11.3 | 23.5 | 0.00 | 0.03 | 0.03 | 69 | 1013.2 |
| 20260503150412 | 55 | 315 | 11.3 | 23.5 | 0.00 | 0.03 | 0.03 | 69 | 1012.9 |
| 20260503150306 | 55 | 0 | 11.3 | 23.5 | 0.00 | 0.03 | 0.03 | 69 | 1012.8 |
| 20260503150206 | 54 | 338 | 11.3 | 23.5 | 0.00 | 0.03 | 0.03 | 69 | 1012.9 |
| 20260503150105 | 55 | 282 | 10.4 | 21.7 | 0.00 | 0.03 | 0.03 | 69 | 1012.9 |
| 20260503140232 | 55 | 344 | 10.4 | 22.6 | 0.00 | 0.03 | 0.03 | 68 | 1012.7 |
| 20260503140130 | 55 | 272 | 10.4 | 22.6 | 0.00 | 0.03 | 0.03 | 68 | 1012.5 |
| 20260503131402 | 56 | 253 | 10.4 | 20.0 | 0.00 | 0.03 | 0.03 | 63 | 1012.6 |
| 20260503131302 | 56 | 356 | 10.4 | 20.0 | 0.00 | 0.03 | 0.03 | 63 | 1012.6 |
| 20260503131204 | 56 | 317 | 10.4 | 20.9 | 0.00 | 0.03 | 0.03 | 62 | 1012.5 |
| 20260503131102 | 56 | 354 | 11.3 | 20.9 | 0.00 | 0.03 | 0.03 | 62 | 1012.8 |
| 20260503131003 | 56 | 336 | 10.4 | 20.9 | 0.00 | 0.03 | 0.03 | 62 | 1012.4 |
| 20260503130902 | 57 | 283 | 10.4 | 20.9 | 0.00 | 0.03 | 0.03 | 62 | 1012.6 |
| 20260503130802 | 57 | 18 | 10.4 | 20.9 | 0.00 | 0.03 | 0.03 | 63 | 1012.6 |
| 20260503130704 | 57 | 249 | 10.4 | 20.9 | 0.00 | 0.03 | 0.03 | 63 | 1012.5 |
| 20260503130604 | 57 | 293 | 10.4 | 21.7 | 0.00 | 0.03 | 0.03 | 63 | 1012.3 |
| 20260503130503 | 57 | 342 | 11.3 | 21.7 | 0.00 | 0.03 | 0.03 | 63 | 1012.5 |
| 20260503130404 | 57 | 0 | 11.3 | 21.7 | 0.00 | 0.03 | 0.03 | 63 | 1012.5 |
| 20260503130303 | 57 | 293 | 11.3 | 21.7 | 0.00 | 0.03 | 0.03 | 62 | 1012.5 |
| 20260503130202 | 57 | 308 | 11.3 | 21.7 | 0.00 | 0.03 | 0.03 | 61 | 1012.3 |
| 20260503120131 | 54 | 337 | 11.3 | 25.2 | 0.00 | 0.03 | 0.03 | 68 | 1012.6 |